GFSFLT1_prec_precacc_021.txt.gz
Total_Precipitation_Accumulation
0.02 0.07 0.06 0.03 0.06 0.44 0.70 0.63 0.76 0.85 0.50 0.18 0.05 0.01 0.01 0.01 0.02 0.01 0.00 0.00 0.00 0.00 0.00 0.00 0.00 0.00 0.00 0.00 0.00 0.00 0.00 0.00
0.05 0.08 0.11 0.12 0.19 0.48 0.63 0.73 0.55 0.26 0.08 0.04 0.03 0.04 0.04 0.02 0.00 0.00 0.00 0.00 0.00 0.00 0.00 0.00 0.00 0.00 0.00 0.00 0.00 0.00 0.00 0.00
0.01 0.02 0.08 0.22 0.43 0.45 0.33 0.28 0.12 0.02 0.02 0.04 0.05 0.03 0.01 0.00 0.00 0.00 0.00 0.00 0.00 0.00 0.00 0.00 0.00 0.00 0.00 0.00 0.00 0.00 0.00 0.00
0.05 0.08 0.12 0.11 0.10 0.05 0.01 0.00 0.00 0.00 0.02 0.01 0.00 0.00 0.00 0.00 0.00 0.00 0.00 0.00 0.00 0.00 0.00 0.00 0.00 0.00 0.00 0.00 0.00 0.00 0.00 0.00
0.01 0.00 0.00 0.00 0.00 0.00 0.00 0.00 0.00 0.00 0.00 0.00 0.00 0.00 0.00 0.00 0.00 0.00 0.00 0.00 0.00 0.00 0.00 0.00 0.00 0.00 0.00 0.00 0.00 0.00 0.00 0.00
0.00 0.00 0.00 0.00 0.00 0.00 0.00 0.00 0.00 0.00 0.00 0.00 0.00 0.00 0.00 0.00 0.00 0.00 0.00 0.00 0.00 0.00 0.00 0.00 0.00 0.00 0.00 0.00 0.00 0.00 0.00 0.00
0.00 0.00 0.00 0.00 0.00 0.00 0.00 0.00 0.00 0.00 0.00 0.00 0.00 0.00 0.00 0.00 0.00 0.00 0.00 0.00 0.00 0.01 0.00 0.00 0.00 0.00 0.00 0.00 0.00 0.00 0.00 0.00
0.00 0.00 0.00 0.00 0.00 0.00 0.00 0.00 0.00 0.00 0.00 0.00 0.00 0.00 0.00 0.00 0.00 0.00 0.00 0.01 0.01 0.00 0.00 0.00 0.00 0.00 0.00 0.00 0.01 0.00 0.00 0.00
0.00 0.00 0.00 0.00 0.00 0.00 0.00 0.00 0.00 0.00 0.00 0.00 0.00 0.00 0.00 0.00 0.00 0.00 0.00 0.00 0.00 0.00 0.00 0.00 0.00 0.00 0.00 0.01 0.01 0.01 0.01 0.02
0.00 0.00 0.00 0.00 0.00 0.00 0.00 0.00 0.00 0.00 0.00 0.00 0.00 0.00 0.00 0.00 0.00 0.00 0.00 0.00 0.00 0.00 0.00 0.00 0.00 0.00 0.00 0.00 0.00 0.00 0.01 0.02
0.00 0.00 0.00 0.00 0.00 0.00 0.00 0.00 0.00 0.00 0.00 0.00 0.00 0.00 0.00 0.00 0.00 0.00 0.00 0.00 0.00 0.00 0.00 0.00 0.00 0.00 0.00 0.00 0.00 0.01 0.01 0.02
0.00 0.00 0.00 0.00 0.00 0.00 0.00 0.00 0.00 0.00 0.00 0.00 0.00 0.00 0.00 0.00 0.00 0.00 0.00 0.00 0.00 0.01 0.00 0.00 0.00 0.00 0.01 0.02 0.02 0.01 0.02 0.02
0.00 0.00 0.00 0.00 0.00 0.00 0.00 0.00 0.00 0.00 0.00 0.00 0.00 0.00 0.00 0.00 0.00 0.00 0.00 0.01 0.02 0.01 0.00 0.01 0.02 0.04 0.04 0.04 0.02 0.01 0.01 0.01
0.00 0.00 0.00 0.00 0.00 0.00 0.00 0.00 0.00 0.00 0.00 0.00 0.00 0.00 0.00 0.00 0.01 0.01 0.01 0.01 0.02 0.02 0.02 0.03 0.03 0.02 0.01 0.01 0.00 0.00 0.00 0.00
0.00 0.00 0.00 0.00 0.00 0.00 0.00 0.00 0.00 0.00 0.00 0.00 0.00 0.00 0.01 0.00 0.01 0.01 0.02 0.03 0.02 0.00 0.00 0.00 0.00 0.00 0.00 0.00 0.00 0.00 0.00 0.00
0.00 0.00 0.00 0.00 0.00 0.00 0.00 0.00 0.00 0.00 0.00 0.00 0.00 0.01 0.01 0.03 0.04 0.03 0.03 0.02 0.01 0.01 0.00 0.00 0.00 0.00 0.00 0.00 0.00 0.00 0.00 0.00
0.00 0.00 0.00 0.00 0.00 0.00 0.00 0.00 0.00 0.00 0.00 0.00 0.01 0.01 0.03 0.04 0.02 0.02 0.01 0.02 0.01 0.00 0.00 0.00 0.00 0.00 0.00 0.00 0.00 0.00 0.00 0.00
0.00 0.00 0.00 0.00 0.00 0.00 0.00 0.00 0.00 0.00 0.00 0.00 0.01 0.03 0.03 0.02 0.02 0.02 0.02 0.03 0.03 0.01 0.00 0.00 0.00 0.00 0.00 0.00 0.00 0.00 0.00 0.00
0.00 0.00 0.00 0.00 0.00 0.00 0.00 0.00 0.00 0.00 0.00 0.00 0.01 0.02 0.02 0.04 0.06 0.03 0.07 0.05 0.00 0.00 0.00 0.00 0.00 0.00 0.00 0.00 0.00 0.00 0.00 0.00

GFSFLT1_prec_precacc_024.txt.gz
Total_Precipitation_Accumulation
0.02 0.08 0.06 0.03 0.06 0.44 0.71 0.71 0.91 1.15 0.85 0.27 0.06 0.01 0.01 0.01 0.02 0.01 0.00 0.00 0.00 0.00 0.00 0.00 0.00 0.00 0.00 0.00 0.00 0.00 0.00 0.00
0.05 0.08 0.11 0.12 0.19 0.49 0.63 0.79 0.61 0.27 0.08 0.04 0.03 0.04 0.04 0.02 0.00 0.00 0.00 0.00 0.00 0.00 0.00 0.00 0.00 0.00 0.00 0.00 0.00 0.00 0.00 0.00
0.01 0.02 0.08 0.22 0.43 0.46 0.35 0.28 0.12 0.02 0.02 0.04 0.05 0.03 0.01 0.00 0.00 0.00 0.00 0.00 0.00 0.00 0.00 0.00 0.00 0.00 0.00 0.00 0.00 0.00 0.00 0.00
0.05 0.09 0.12 0.12 0.10 0.05 0.01 0.00 0.00 0.00 0.02 0.01 0.00 0.00 0.00 0.00 0.00 0.00 0.00 0.00 0.00 0.00 0.00 0.00 0.00 0.00 0.00 0.00 0.00 0.00 0.00 0.00
0.01 0.00 0.00 0.00 0.00 0.00 0.00 0.00 0.00 0.00 0.00 0.00 0.00 0.00 0.00 0.00 0.00 0.00 0.00 0.00 0.00 0.00 0.00 0.00 0.00 0.00 0.00 0.00 0.00 0.00 0.00 0.00
0.00 0.00 0.00 0.00 0.00 0.00 0.00 0.00 0.00 0.00 0.00 0.00 0.00 0.00 0.00 0.00 0.00 0.00 0.00 0.00 0.00 0.00 0.00 0.00 0.00 0.00 0.00 0.00 0.00 0.00 0.00 0.00
0.00 0.00 0.00 0.00 0.00 0.00 0.00 0.00 0.00 0.00 0.00 0.00 0.00 0.00 0.00 0.00 0.00 0.00 0.00 0.00 0.00 0.01 0.00 0.00 0.00 0.00 0.00 0.00 0.00 0.00 0.00 0.00
0.00 0.00 0.00 0.00 0.00 0.00 0.00 0.00 0.00 0.00 0.00 0.00 0.00 0.00 0.00 0.00 0.00 0.00 0.00 0.01 0.01 0.00 0.00 0.00 0.00 0.00 0.00 0.00 0.01 0.00 0.00 0.00
0.00 0.00 0.00 0.00 0.00 0.00 0.00 0.00 0.00 0.00 0.00 0.00 0.00 0.00 0.00 0.00 0.00 0.00 0.00 0.00 0.00 0.00 0.00 0.00 0.00 0.00 0.00 0.01 0.02 0.01 0.01 0.02
0.00 0.00 0.00 0.00 0.00 0.00 0.00 0.00 0.00 0.00 0.00 0.00 0.00 0.00 0.00 0.00 0.00 0.00 0.00 0.00 0.00 0.00 0.00 0.00 0.00 0.00 0.00 0.00 0.01 0.02 0.03 0.02
0.00 0.00 0.00 0.00 0.00 0.00 0.00 0.00 0.00 0.00 0.00 0.00 0.00 0.00 0.00 0.00 0.00 0.00 0.00 0.00 0.00 0.00 0.00 0.00 0.00 0.00 0.00 0.01 0.01 0.02 0.02 0.02
0.00 0.00 0.00 0.00 0.00 0.00 0.00 0.00 0.00 0.00 0.00 0.00 0.00 0.00 0.00 0.00 0.00 0.00 0.00 0.00 0.00 0.01 0.00 0.00 0.00 0.00 0.01 0.02 0.04 0.03 0.02 0.02
0.00 0.00 0.00 0.00 0.00 0.00 0.00 0.00 0.00 0.00 0.00 0.00 0.00 0.00 0.00 0.00 0.00 0.00 0.00 0.01 0.02 0.01 0.00 0.01 0.02 0.04 0.06 0.06 0.02 0.01 0.01 0.01
0.00 0.00 0.00 0.00 0.00 0.00 0.00 0.00 0.00 0.00 0.00 0.00 0.00 0.00 0.00 0.00 0.01 0.01 0.01 0.01 0.02 0.02 0.02 0.03 0.03 0.04 0.03 0.01 0.00 0.00 0.00 0.00
0.00 0.00 0.00 0.00 0.00 0.00 0.00 0.00 0.00 0.00 0.00 0.00 0.00 0.00 0.01 0.00 0.01 0.01 0.02 0.03 0.02 0.00 0.00 0.00 0.01 0.00 0.00 0.00 0.00 0.00 0.00 0.00
0.00 0.00 0.00 0.00 0.00 0.00 0.00 0.00 0.00 0.00 0.00 0.00 0.00 0.01 0.01 0.03 0.04 0.03 0.03 0.02 0.01 0.01 0.00 0.00 0.00 0.00 0.00 0.00 0.00 0.00 0.00 0.00
0.00 0.00 0.00 0.00 0.00 0.00 0.00 0.00 0.00 0.00 0.00 0.00 0.01 0.01 0.03 0.04 0.02 0.02 0.01 0.02 0.01 0.00 0.00 0.00 0.00 0.00 0.00 0.00 0.00 0.00 0.00 0.00
0.00 0.00 0.00 0.00 0.00 0.00 0.00 0.00 0.00 0.00 0.00 0.00 0.01 0.03 0.03 0.02 0.02 0.02 0.02 0.03 0.03 0.01 0.00 0.00 0.00 0.00 0.00 0.00 0.00 0.00 0.00 0.00
0.00 0.00 0.00 0.00 0.00 0.00 0.00 0.00 0.00 0.00 0.00 0.00 0.01 0.02 0.02 0.04 0.06 0.03 0.07 0.05 0.00 0.00 0.00 0.00 0.00 0.00 0.00 0.00 0.00 0.00 0.00 0.00

GFSFLT1_prec_precacc_027.txt.gz
Total_Precipitation_Accumulation
0.02 0.08 0.06 0.03 0.06 0.44 0.71 0.71 0.94 1.25 1.05 0.30 0.06 0.01 0.01 0.01 0.02 0.01 0.00 0.00 0.00 0.00 0.00 0.00 0.00 0.00 0.00 0.00 0.00 0.00 0.00 0.00
0.05 0.08 0.11 0.12 0.19 0.50 0.65 0.80 0.61 0.28 0.09 0.05 0.03 0.04 0.04 0.02 0.00 0.00 0.00 0.00 0.00 0.00 0.00 0.00 0.00 0.00 0.00 0.00 0.00 0.00 0.00 0.00
0.01 0.02 0.08 0.22 0.43 0.46 0.35 0.29 0.15 0.06 0.04 0.05 0.05 0.03 0.01 0.00 0.00 0.00 0.00 0.00 0.00 0.00 0.00 0.00 0.00 0.00 0.00 0.00 0.00 0.00 0.00 0.00
0.05 0.09 0.12 0.12 0.10 0.06 0.02 0.02 0.03 0.00 0.02 0.01 0.00 0.00 0.00 0.00 0.00 0.00 0.00 0.00 0.00 0.00 0.00 0.00 0.00 0.00 0.00 0.00 0.00 0.00 0.00 0.00
0.01 0.00 0.00 0.00 0.01 0.01 0.01 0.01 0.00 0.00 0.00 0.00 0.00 0.00 0.00 0.00 0.00 0.00 0.00 0.00 0.00 0.00 0.00 0.00 0.00 0.00 0.00 0.00 0.00 0.00 0.00 0.00
0.00 0.00 0.00 0.00 0.00 0.00 0.00 0.00 0.00 0.00 0.00 0.00 0.00 0.00 0.00 0.00 0.00 0.00 0.00 0.00 0.00 0.00 0.00 0.00 0.00 0.00 0.00 0.00 0.00 0.00 0.00 0.00
0.00 0.00 0.00 0.00 0.00 0.00 0.00 0.00 0.00 0.00 0.00 0.00 0.00 0.00 0.00 0.00 0.00 0.00 0.00 0.00 0.00 0.01 0.00 0.00 0.00 0.00 0.00 0.00 0.00 0.00 0.00 0.00
0.00 0.00 0.00 0.00 0.00 0.00 0.00 0.00 0.00 0.00 0.00 0.00 0.00 0.00 0.00 0.00 0.00 0.00 0.00 0.01 0.01 0.00 0.00 0.00 0.00 0.00 0.00 0.00 0.01 0.01 0.00 0.01
0.00 0.00 0.00 0.00 0.00 0.00 0.00 0.00 0.00 0.00 0.00 0.00 0.00 0.00 0.00 0.00 0.00 0.00 0.00 0.00 0.00 0.00 0.00 0.00 0.00 0.00 0.00 0.01 0.02 0.02 0.03 0.05
0.00 0.00 0.00 0.00 0.00 0.00 0.00 0.00 0.00 0.00 0.00 0.00 0.00 0.00 0.00 0.00 0.00 0.00 0.00 0.00 0.00 0.00 0.00 0.00 0.00 0.00 0.00 0.01 0.02 0.03 0.05 0.06
0.00 0.00 0.00 0.00 0.00 0.00 0.00 0.00 0.00 0.00 0.00 0.00 0.00 0.00 0.00 0.00 0.00 0.00 0.00 0.00 0.00 0.00 0.00 0.00 0.00 0.00 0.00 0.01 0.01 0.03 0.05 0.04
0.00 0.00 0.00 0.00 0.00 0.00 0.00 0.00 0.00 0.00 0.00 0.00 0.00 0.00 0.00 0.00 0.00 0.00 0.00 0.00 0.00 0.01 0.00 0.00 0.00 0.00 0.01 0.03 0.05 0.05 0.05 0.04
0.00 0.00 0.00 0.00 0.00 0.00 0.00 0.00 0.00 0.00 0.00 0.00 0.00 0.00 0.00 0.00 0.00 0.00 0.00 0.01 0.02 0.01 0.00 0.01 0.02 0.04 0.06 0.07 0.04 0.02 0.01 0.01
0.00 0.00 0.00 0.00 0.00 0.00 0.00 0.00 0.00 0.00 0.00 0.00 0.00 0.00 0.00 0.00 0.01 0.01 0.01 0.01 0.02 0.02 0.02 0.03 0.03 0.04 0.04 0.01 0.01 0.00 0.00 0.01
0.00 0.00 0.00 0.00 0.00 0.00 0.00 0.00 0.00 0.00 0.00 0.00 0.00 0.00 0.01 0.00 0.01 0.01 0.02 0.03 0.02 0.00 0.00 0.00 0.01 0.00 0.00 0.00 0.00 0.00 0.01 0.00
0.00 0.00 0.00 0.00 0.00 0.00 0.00 0.00 0.00 0.00 0.00 0.00 0.00 0.01 0.01 0.03 0.04 0.03 0.03 0.02 0.01 0.01 0.00 0.00 0.00 0.00 0.00 0.00 0.00 0.00 0.00 0.00
0.00 0.00 0.00 0.00 0.00 0.00 0.00 0.00 0.00 0.00 0.00 0.00 0.01 0.01 0.03 0.04 0.02 0.02 0.01 0.02 0.01 0.00 0.00 0.00 0.00 0.00 0.00 0.00 0.00 0.00 0.00 0.00
0.00 0.00 0.00 0.00 0.00 0.00 0.00 0.00 0.00 0.00 0.00 0.00 0.01 0.03 0.03 0.02 0.02 0.02 0.02 0.03 0.03 0.01 0.00 0.00 0.00 0.00 0.00 0.00 0.00 0.00 0.00 0.00
0.00 0.00 0.00 0.00 0.00 0.00 0.00 0.00 0.00 0.00 0.00 0.00 0.01 0.02 0.02 0.04 0.06 0.03 0.07 0.05 0.00 0.00 0.00 0.00 0.00 0.00 0.00 0.00 0.00 0.00 0.00 0.00

GFSFLT1_prec_precacc_033.txt.gz
Total_Precipitation_Accumulation
0.02 0.08 0.06 0.03 0.07 0.46 0.73 0.72 0.98 1.25 1.07 0.32 0.07 0.01 0.01 0.01 0.02 0.01 0.00 0.00 0.00 0.00 0.00 0.00 0.00 0.00 0.00 0.00 0.00 0.00 0.00 0.00
0.05 0.08 0.11 0.12 0.19 0.54 0.68 0.82 0.62 0.28 0.09 0.06 0.04 0.04 0.04 0.02 0.00 0.00 0.00 0.00 0.00 0.00 0.00 0.00 0.00 0.00 0.00 0.00 0.00 0.00 0.00 0.00
0.01 0.02 0.08 0.22 0.43 0.47 0.37 0.30 0.16 0.10 0.07 0.07 0.05 0.03 0.01 0.00 0.00 0.00 0.00 0.00 0.00 0.00 0.00 0.00 0.00 0.00 0.00 0.00 0.00 0.00 0.00 0.00
0.05 0.09 0.12 0.12 0.10 0.06 0.07 0.10 0.05 0.09 0.06 0.01 0.00 0.00 0.00 0.00 0.00 0.00 0.00 0.00 0.00 0.00 0.00 0.00 0.00 0.00 0.00 0.00 0.00 0.00 0.00 0.00
0.02 0.01 0.00 0.00 0.04 0.06 0.08 0.04 0.01 0.01 0.00 0.00 0.00 0.00 0.00 0.00 0.00 0.00 0.00 0.00 0.00 0.00 0.00 0.00 0.00 0.00 0.00 0.00 0.00 0.00 0.00 0.00
0.01 0.00 0.01 0.00 0.00 0.03 0.03 0.01 0.01 0.00 0.00 0.00 0.00 0.00 0.00 0.00 0.00 0.00 0.00 0.00 0.00 0.00 0.00 0.00 0.00 0.00 0.00 0.00 0.00 0.00 0.00 0.00
0.03 0.00 0.00 0.01 0.01 0.00 0.01 0.00 0.00 0.00 0.00 0.00 0.00 0.00 0.00 0.00 0.00 0.00 0.00 0.00 0.00 0.01 0.00 0.00 0.00 0.00 0.00 0.00 0.00 0.00 0.00 0.00
0.00 0.00 0.00 0.00 0.00 0.00 0.00 0.00 0.00 0.00 0.00 0.00 0.00 0.00 0.00 0.00 0.00 0.00 0.00 0.01 0.01 0.00 0.00 0.00 0.00 0.00 0.00 0.00 0.01 0.01 0.00 0.01
0.00 0.00 0.00 0.00 0.00 0.00 0.00 0.00 0.00 0.00 0.00 0.00 0.00 0.00 0.00 0.00 0.00 0.00 0.00 0.00 0.00 0.00 0.00 0.00 0.00 0.00 0.00 0.01 0.02 0.02 0.04 0.06
0.00 0.00 0.00 0.00 0.00 0.00 0.00 0.00 0.00 0.00 0.00 0.00 0.00 0.00 0.00 0.00 0.00 0.00 0.00 0.00 0.00 0.00 0.00 0.00 0.00 0.00 0.00 0.01 0.02 0.03 0.05 0.07
0.00 0.00 0.00 0.00 0.00 0.00 0.00 0.00 0.00 0.00 0.00 0.00 0.00 0.00 0.00 0.00 0.00 0.00 0.00 0.00 0.00 0.00 0.00 0.00 0.00 0.00 0.00 0.01 0.01 0.03 0.06 0.06
0.00 0.00 0.00 0.00 0.00 0.00 0.00 0.00 0.00 0.00 0.00 0.00 0.00 0.00 0.00 0.00 0.00 0.00 0.00 0.00 0.00 0.01 0.00 0.00 0.00 0.00 0.01 0.03 0.05 0.05 0.05 0.05
0.00 0.00 0.00 0.00 0.00 0.00 0.00 0.00 0.00 0.00 0.00 0.00 0.00 0.00 0.00 0.00 0.00 0.00 0.00 0.01 0.02 0.01 0.00 0.01 0.02 0.04 0.06 0.07 0.04 0.02 0.02 0.02
0.00 0.00 0.00 0.00 0.00 0.00 0.00 0.00 0.00 0.00 0.00 0.00 0.00 0.00 0.00 0.00 0.01 0.01 0.01 0.01 0.02 0.02 0.02 0.03 0.03 0.04 0.04 0.01 0.01 0.00 0.01 0.01
0.00 0.00 0.00 0.00 0.00 0.00 0.00 0.00 0.00 0.00 0.00 0.00 0.00 0.00 0.01 0.00 0.01 0.01 0.02 0.03 0.02 0.00 0.00 0.00 0.01 0.00 0.00 0.00 0.00 0.01 0.01 0.00
0.00 0.00 0.01 0.00 0.00 0.00 0.00 0.00 0.00 0.00 0.00 0.00 0.00 0.01 0.01 0.03 0.04 0.03 0.03 0.02 0.01 0.01 0.00 0.00 0.00 0.00 0.00 0.00 0.00 0.00 0.00 0.00
0.00 0.00 0.00 0.02 0.01 0.01 0.00 0.00 0.00 0.00 0.00 0.00 0.01 0.01 0.03 0.04 0.02 0.02 0.01 0.02 0.01 0.00 0.00 0.00 0.00 0.00 0.00 0.00 0.00 0.00 0.00 0.00
0.00 0.00 0.00 0.00 0.01 0.03 0.01 0.00 0.00 0.00 0.00 0.00 0.01 0.03 0.03 0.02 0.02 0.02 0.02 0.03 0.03 0.01 0.00 0.00 0.00 0.00 0.00 0.00 0.00 0.00 0.00 0.00
0.00 0.00 0.00 0.00 0.00 0.01 0.01 0.00 0.00 0.00 0.00 0.00 0.01 0.02 0.02 0.04 0.06 0.03 0.07 0.05 0.00 0.00 0.00 0.00 0.00 0.00 0.00 0.00 0.00 0.00 0.00 0.00

GFSFLT1_prec_precacc_036.txt.gz
Total_Precipitation_Accumulation
0.02 0.08 0.06 0.03 0.07 0.46 0.73 0.72 0.98 1.25 1.07 0.32 0.07 0.01 0.01 0.01 0.02 0.01 0.00 0.00 0.00 0.00 0.00 0.00 0.00 0.00 0.00 0.00 0.00 0.00 0.00 0.00
0.05 0.08 0.11 0.12 0.19 0.54 0.68 0.82 0.62 0.28 0.09 0.06 0.04 0.04 0.04 0.02 0.00 0.00 0.00 0.00 0.00 0.00 0.00 0.00 0.00 0.00 0.00 0.00 0.00 0.00 0.00 0.00
0.01 0.02 0.08 0.22 0.43 0.47 0.38 0.31 0.16 0.10 0.07 0.07 0.05 0.03 0.01 0.00 0.00 0.00 0.00 0.00 0.00 0.00 0.00 0.00 0.00 0.00 0.00 0.00 0.00 0.00 0.00 0.00
0.05 0.09 0.12 0.12 0.10 0.06 0.08 0.11 0.06 0.09 0.06 0.01 0.00 0.00 0.00 0.00 0.00 0.00 0.00 0.00 0.00 0.00 0.00 0.00 0.00 0.00 0.00 0.00 0.00 0.00 0.00 0.00
0.02 0.01 0.01 0.00 0.05 0.08 0.12 0.08 0.03 0.02 0.00 0.00 0.00 0.00 0.00 0.00 0.00 0.00 0.00 0.00 0.00 0.00 0.00 0.00 0.00 0.00 0.00 0.00 0.00 0.00 0.00 0.00
0.01 0.00 0.02 0.04 0.04 0.08 0.08 0.04 0.02 0.00 0.00 0.00 0.00 0.00 0.00 0.00 0.00 0.00 0.00 0.00 0.00 0.00 0.00 0.00 0.00 0.00 0.00 0.00 0.00 0.00 0.00 0.00
0.03 0.00 0.01 0.03 0.05 0.15 0.08 0.03 0.01 0.00 0.00 0.00 0.00 0.00 0.00 0.00 0.00 0.00 0.00 0.00 0.00 0.01 0.00 0.00 0.00 0.00 0.00 0.00 0.00 0.00 0.00 0.00
0.01 0.01 0.00 0.00 0.04 0.08 0.04 0.01 0.00 0.00 0.00 0.00 0.00 0.00 0.00 0.00 0.00 0.00 0.00 0.01 0.01 0.00 0.00 0.00 0.00 0.00 0.00 0.00 0.01 0.01 0.00 0.01
0.00 0.01 0.00 0.00 0.04 0.02 0.02 0.00 0.00 0.00 0.00 0.00 0.00 0.00 0.00 0.00 0.00 0.00 0.00 0.00 0.00 0.00 0.00 0.00 0.00 0.00 0.00 0.01 0.02 0.02 0.04 0.06
0.00 0.00 0.00 0.00 0.03 0.00 0.00 0.00 0.00 0.00 0.00 0.00 0.00 0.00 0.00 0.00 0.00 0.00 0.00 0.00 0.00 0.00 0.00 0.00 0.00 0.00 0.00 0.01 0.02 0.03 0.05 0.07
0.00 0.00 0.00 0.00 0.00 0.00 0.00 0.00 0.00 0.00 0.00 0.00 0.00 0.00 0.00 0.00 0.00 0.00 0.00 0.00 0.00 0.00 0.00 0.00 0.00 0.00 0.00 0.01 0.01 0.03 0.06 0.06
0.00 0.00 0.00 0.00 0.00 0.00 0.00 0.00 0.00 0.00 0.00 0.00 0.00 0.00 0.00 0.00 0.00 0.00 0.00 0.00 0.00 0.01 0.00 0.00 0.00 0.00 0.01 0.03 0.05 0.05 0.05 0.05
0.00 0.00 0.00 0.00 0.00 0.00 0.00 0.00 0.00 0.00 0.00 0.00 0.00 0.00 0.00 0.00 0.00 0.00 0.00 0.01 0.02 0.01 0.00 0.01 0.02 0.04 0.06 0.07 0.04 0.02 0.02 0.02
0.00 0.00 0.00 0.00 0.00 0.00 0.00 0.00 0.00 0.00 0.00 0.00 0.00 0.00 0.00 0.00 0.01 0.01 0.01 0.01 0.02 0.02 0.02 0.03 0.03 0.04 0.04 0.01 0.01 0.00 0.01 0.01
0.00 0.00 0.00 0.00 0.00 0.00 0.00 0.00 0.00 0.00 0.00 0.00 0.00 0.00 0.01 0.00 0.01 0.01 0.02 0.03 0.02 0.00 0.00 0.00 0.01 0.00 0.00 0.00 0.00 0.01 0.01 0.00
0.01 0.00 0.01 0.00 0.00 0.00 0.01 0.01 0.01 0.01 0.01 0.01 0.01 0.01 0.01 0.03 0.04 0.03 0.03 0.02 0.01 0.01 0.00 0.00 0.00 0.00 0.00 0.00 0.00 0.00 0.00 0.00
0.00 0.00 0.00 0.02 0.02 0.02 0.01 0.01 0.01 0.01 0.01 0.02 0.02 0.01 0.03 0.04 0.03 0.03 0.01 0.02 0.01 0.00 0.00 0.00 0.00 0.00 0.00 0.00 0.00 0.00 0.00 0.00
0.00 0.00 0.00 0.00 0.01 0.03 0.02 0.02 0.01 0.01 0.02 0.01 0.01 0.03 0.03 0.02 0.02 0.02 0.02 0.03 0.03 0.01 0.00 0.00 0.00 0.00 0.00 0.00 0.00 0.00 0.00 0.00
0.00 0.00 0.00 0.00 0.00 0.02 0.02 0.02 0.02 0.01 0.01 0.01 0.01 0.02 0.02 0.04 0.06 0.03 0.08 0.06 0.00 0.00 0.00 0.00 0.00 0.00 0.00 0.00 0.00 0.00 0.00 0.00

GFSFLT1_prec_precacc_039.txt.gz
Total_Precipitation_Accumulation
0.02 0.08 0.06 0.03 0.07 0.46 0.73 0.72 0.98 1.25 1.07 0.32 0.07 0.01 0.01 0.01 0.02 0.01 0.00 0.00 0.00 0.00 0.00 0.00 0.00 0.00 0.00 0.00 0.00 0.00 0.00 0.00
0.05 0.08 0.11 0.12 0.19 0.54 0.68 0.82 0.62 0.28 0.09 0.06 0.04 0.04 0.04 0.02 0.00 0.00 0.00 0.00 0.00 0.00 0.00 0.00 0.00 0.00 0.00 0.00 0.00 0.00 0.00 0.00
0.01 0.02 0.08 0.22 0.43 0.48 0.40 0.31 0.16 0.10 0.07 0.07 0.05 0.03 0.01 0.00 0.00 0.00 0.00 0.00 0.00 0.00 0.00 0.00 0.00 0.00 0.00 0.00 0.00 0.00 0.00 0.00
0.05 0.09 0.12 0.12 0.10 0.06 0.08 0.13 0.07 0.09 0.06 0.01 0.00 0.00 0.00 0.00 0.00 0.00 0.00 0.00 0.00 0.00 0.00 0.00 0.00 0.00 0.00 0.00 0.00 0.00 0.00 0.00
0.02 0.01 0.01 0.00 0.05 0.08 0.12 0.10 0.09 0.03 0.01 0.00 0.00 0.00 0.00 0.00 0.00 0.00 0.00 0.00 0.00 0.00 0.00 0.00 0.00 0.00 0.00 0.00 0.00 0.00 0.00 0.00
0.02 0.01 0.03 0.05 0.04 0.08 0.09 0.10 0.10 0.03 0.01 0.00 0.01 0.00 0.00 0.00 0.00 0.00 0.00 0.00 0.00 0.00 0.00 0.00 0.00 0.00 0.00 0.00 0.00 0.00 0.00 0.00
0.06 0.04 0.06 0.06 0.07 0.20 0.11 0.10 0.06 0.02 0.02 0.00 0.02 0.01 0.01 0.00 0.00 0.00 0.00 0.00 0.00 0.01 0.00 0.00 0.00 0.00 0.00 0.00 0.00 0.00 0.00 0.00
0.02 0.02 0.05 0.05 0.09 0.20 0.10 0.04 0.04 0.03 0.01 0.00 0.00 0.03 0.03 0.03 0.00 0.00 0.00 0.01 0.01 0.00 0.00 0.00 0.00 0.00 0.00 0.00 0.01 0.01 0.00 0.01
0.01 0.02 0.03 0.05 0.16 0.17 0.08 0.02 0.02 0.02 0.00 0.00 0.00 0.01 0.03 0.04 0.01 0.00 0.00 0.00 0.00 0.00 0.00 0.00 0.00 0.00 0.00 0.01 0.02 0.02 0.04 0.06
0.00 0.00 0.00 0.01 0.17 0.13 0.03 0.01 0.01 0.01 0.00 0.00 0.00 0.01 0.02 0.06 0.02 0.01 0.00 0.00 0.00 0.00 0.00 0.00 0.00 0.00 0.00 0.01 0.02 0.03 0.05 0.07
0.00 0.00 0.00 0.00 0.03 0.01 0.00 0.00 0.00 0.00 0.00 0.00 0.02 0.02 0.02 0.02 0.01 0.00 0.00 0.00 0.00 0.00 0.00 0.00 0.00 0.00 0.00 0.01 0.01 0.03 0.06 0.06
0.00 0.00 0.00 0.00 0.00 0.00 0.00 0.00 0.00 0.00 0.00 0.00 0.01 0.01 0.01 0.00 0.00 0.00 0.00 0.00 0.00 0.01 0.00 0.00 0.00 0.00 0.01 0.03 0.05 0.05 0.05 0.05
0.00 0.00 0.00 0.00 0.00 0.00 0.00 0.00 0.00 0.00 0.01 0.01 0.02 0.02 0.01 0.00 0.00 0.00 0.00 0.01 0.02 0.01 0.00 0.01 0.02 0.04 0.06 0.07 0.04 0.02 0.02 0.02
0.00 0.00 0.00 0.00 0.00 0.00 0.00 0.00 0.00 0.03 0.03 0.03 0.02 0.01 0.00 0.01 0.01 0.01 0.01 0.01 0.02 0.02 0.02 0.03 0.03 0.04 0.04 0.01 0.01 0.00 0.01 0.01
0.00 0.01 0.00 0.00 0.00 0.01 0.02 0.02 0.06 0.06 0.03 0.02 0.02 0.01 0.01 0.01 0.01 0.01 0.02 0.03 0.03 0.01 0.00 0.00 0.01 0.00 0.00 0.00 0.00 0.01 0.01 0.00
0.01 0.00 0.01 0.01 0.01 0.04 0.04 0.07 0.05 0.03 0.03 0.03 0.02 0.02 0.01 0.03 0.05 0.04 0.04 0.03 0.01 0.01 0.00 0.00 0.00 0.00 0.00 0.00 0.00 0.00 0.00 0.00
0.00 0.00 0.00 0.02 0.02 0.02 0.02 0.04 0.04 0.03 0.03 0.03 0.03 0.02 0.04 0.05 0.03 0.03 0.02 0.02 0.01 0.01 0.02 0.01 0.00 0.00 0.00 0.00 0.00 0.00 0.00 0.00
0.00 0.00 0.00 0.00 0.01 0.03 0.02 0.02 0.01 0.02 0.03 0.04 0.03 0.04 0.03 0.02 0.02 0.02 0.02 0.04 0.09 0.07 0.02 0.00 0.00 0.00 0.00 0.00 0.00 0.00 0.00 0.00
0.00 0.00 0.00 0.00 0.00 0.02 0.02 0.02 0.02 0.02 0.02 0.02 0.02 0.02 0.02 0.04 0.06 0.04 0.16 0.19 0.06 0.00 0.00 0.00 0.00 0.00 0.00 0.00 0.00 0.00 0.00 0.00

GFSFLT1_prec_precacc_042.txt.gz
Total_Precipitation_Accumulation
0.02 0.08 0.06 0.03 0.07 0.46 0.73 0.72 0.98 1.25 1.07 0.32 0.07 0.03 0.04 0.02 0.02 0.01 0.00 0.00 0.00 0.00 0.00 0.00 0.00 0.00 0.00 0.00 0.00 0.00 0.00 0.00
0.05 0.08 0.11 0.12 0.19 0.54 0.68 0.82 0.62 0.28 0.09 0.06 0.04 0.04 0.05 0.02 0.00 0.00 0.00 0.00 0.00 0.00 0.00 0.00 0.00 0.00 0.00 0.00 0.00 0.00 0.00 0.00
0.01 0.02 0.08 0.22 0.43 0.48 0.40 0.31 0.16 0.10 0.07 0.07 0.05 0.03 0.01 0.00 0.00 0.00 0.00 0.00 0.00 0.00 0.00 0.00 0.00 0.00 0.00 0.00 0.00 0.00 0.00 0.00
0.05 0.09 0.12 0.12 0.10 0.06 0.08 0.13 0.07 0.09 0.06 0.01 0.00 0.00 0.00 0.00 0.00 0.00 0.00 0.00 0.00 0.00 0.00 0.00 0.00 0.00 0.00 0.00 0.00 0.00 0.00 0.00
0.02 0.01 0.01 0.00 0.05 0.08 0.12 0.10 0.09 0.03 0.01 0.00 0.00 0.00 0.00 0.00 0.00 0.00 0.00 0.00 0.00 0.00 0.00 0.00 0.00 0.00 0.00 0.00 0.00 0.00 0.00 0.00
0.02 0.01 0.03 0.05 0.04 0.08 0.09 0.10 0.13 0.04 0.02 0.00 0.01 0.01 0.00 0.00 0.00 0.00 0.00 0.00 0.00 0.00 0.00 0.00 0.00 0.00 0.00 0.00 0.00 0.00 0.00 0.00
0.06 0.04 0.06 0.06 0.07 0.20 0.11 0.10 0.08 0.07 0.04 0.01 0.04 0.07 0.06 0.03 0.03 0.01 0.00 0.00 0.00 0.01 0.00 0.00 0.00 0.00 0.00 0.00 0.01 0.00 0.00 0.00
0.02 0.02 0.05 0.05 0.09 0.20 0.10 0.04 0.05 0.04 0.03 0.03 0.03 0.10 0.07 0.07 0.04 0.02 0.01 0.01 0.01 0.00 0.00 0.00 0.00 0.01 0.02 0.02 0.02 0.01 0.00 0.01
0.01 0.02 0.04 0.07 0.17 0.18 0.08 0.03 0.05 0.04 0.01 0.02 0.01 0.05 0.08 0.11 0.07 0.04 0.01 0.00 0.00 0.00 0.00 0.00 0.02 0.05 0.04 0.01 0.02 0.02 0.04 0.06
0.00 0.01 0.00 0.02 0.23 0.16 0.04 0.02 0.01 0.02 0.02 0.01 0.01 0.04 0.10 0.22 0.10 0.03 0.01 0.00 0.00 0.00 0.01 0.04 0.05 0.01 0.00 0.01 0.02 0.03 0.05 0.07
0.00 0.00 0.00 0.01 0.06 0.03 0.00 0.00 0.00 0.00 0.00 0.04 0.07 0.10 0.12 0.11 0.08 0.03 0.02 0.01 0.01 0.01 0.02 0.01 0.00 0.00 0.00 0.01 0.01 0.03 0.06 0.06
0.00 0.00 0.00 0.00 0.00 0.00 0.00 0.00 0.00 0.00 0.00 0.01 0.06 0.08 0.09 0.09 0.06 0.03 0.01 0.00 0.01 0.01 0.00 0.00 0.00 0.00 0.01 0.03 0.05 0.05 0.05 0.05
0.00 0.00 0.00 0.00 0.00 0.00 0.01 0.01 0.02 0.03 0.07 0.08 0.13 0.11 0.08 0.04 0.03 0.01 0.00 0.01 0.02 0.01 0.00 0.01 0.02 0.04 0.06 0.07 0.04 0.02 0.02 0.02
0.00 0.00 0.00 0.00 0.00 0.00 0.04 0.02 0.03 0.12 0.13 0.09 0.08 0.05 0.03 0.02 0.02 0.01 0.01 0.03 0.04 0.04 0.02 0.03 0.04 0.04 0.04 0.01 0.01 0.00 0.01 0.01
0.00 0.01 0.00 0.00 0.00 0.05 0.08 0.06 0.11 0.17 0.12 0.08 0.06 0.03 0.03 0.02 0.02 0.02 0.02 0.04 0.03 0.01 0.01 0.01 0.01 0.01 0.00 0.00 0.00 0.01 0.01 0.00
0.01 0.00 0.01 0.02 0.03 0.08 0.09 0.10 0.09 0.07 0.08 0.07 0.04 0.03 0.02 0.03 0.05 0.04 0.04 0.03 0.02 0.01 0.02 0.06 0.05 0.02 0.00 0.00 0.00 0.00 0.00 0.00
0.00 0.00 0.00 0.02 0.03 0.03 0.03 0.04 0.05 0.04 0.04 0.04 0.04 0.02 0.04 0.05 0.03 0.03 0.02 0.03 0.03 0.06 0.11 0.08 0.03 0.01 0.00 0.00 0.00 0.00 0.00 0.00
0.00 0.00 0.00 0.00 0.01 0.03 0.02 0.02 0.01 0.02 0.04 0.05 0.04 0.04 0.04 0.02 0.03 0.02 0.02 0.07 0.21 0.21 0.09 0.03 0.00 0.00 0.00 0.00 0.00 0.00 0.00 0.00
0.00 0.00 0.00 0.00 0.00 0.02 0.02 0.02 0.02 0.02 0.02 0.02 0.02 0.02 0.02 0.04 0.06 0.04 0.19 0.31 0.17 0.04 0.00 0.00 0.00 0.00 0.00 0.00 0.00 0.00 0.00 0.00

GFSFLT1_prec_precacc_045.txt.gz
Total_Precipitation_Accumulation
0.02 0.08 0.06 0.03 0.07 0.46 0.73 0.72 0.98 1.25 1.07 0.32 0.07 0.03 0.05 0.03 0.04 0.02 0.01 0.00 0.00 0.00 0.00 0.00 0.00 0.00 0.00 0.00 0.00 0.00 0.00 0.00
0.05 0.08 0.11 0.12 0.19 0.54 0.68 0.82 0.62 0.28 0.09 0.06 0.04 0.04 0.06 0.02 0.01 0.00 0.00 0.00 0.00 0.00 0.00 0.00 0.00 0.00 0.00 0.00 0.00 0.00 0.00 0.00
0.01 0.02 0.08 0.22 0.43 0.48 0.40 0.31 0.16 0.10 0.07 0.07 0.05 0.03 0.01 0.00 0.00 0.00 0.00 0.00 0.00 0.00 0.00 0.00 0.00 0.00 0.00 0.00 0.00 0.00 0.00 0.00
0.05 0.09 0.12 0.12 0.10 0.06 0.08 0.13 0.07 0.09 0.06 0.01 0.00 0.00 0.00 0.00 0.00 0.00 0.00 0.00 0.00 0.00 0.00 0.00 0.00 0.00 0.00 0.00 0.00 0.00 0.00 0.00
0.02 0.01 0.01 0.00 0.05 0.08 0.12 0.10 0.09 0.03 0.01 0.00 0.00 0.00 0.00 0.02 0.05 0.02 0.01 0.00 0.00 0.00 0.00 0.00 0.00 0.00 0.00 0.00 0.00 0.00 0.00 0.00
0.02 0.01 0.03 0.05 0.04 0.08 0.09 0.10 0.13 0.04 0.02 0.00 0.01 0.01 0.01 0.03 0.04 0.02 0.00 0.00 0.00 0.00 0.00 0.00 0.00 0.00 0.00 0.00 0.00 0.00 0.00 0.00
0.06 0.04 0.06 0.06 0.07 0.20 0.11 0.11 0.08 0.07 0.04 0.01 0.04 0.07 0.06 0.04 0.05 0.02 0.01 0.00 0.01 0.01 0.00 0.00 0.00 0.00 0.00 0.00 0.01 0.01 0.00 0.00
0.02 0.02 0.05 0.05 0.09 0.20 0.10 0.04 0.06 0.04 0.03 0.04 0.05 0.11 0.07 0.07 0.05 0.04 0.04 0.03 0.02 0.01 0.00 0.00 0.00 0.01 0.02 0.06 0.08 0.03 0.00 0.01
0.01 0.02 0.05 0.07 0.17 0.18 0.08 0.03 0.06 0.06 0.08 0.05 0.03 0.06 0.09 0.12 0.10 0.08 0.05 0.03 0.02 0.01 0.00 0.00 0.03 0.07 0.08 0.05 0.03 0.02 0.04 0.06
0.00 0.01 0.00 0.02 0.23 0.16 0.04 0.02 0.01 0.03 0.10 0.05 0.02 0.05 0.11 0.26 0.16 0.09 0.05 0.03 0.02 0.01 0.02 0.05 0.06 0.02 0.01 0.01 0.02 0.03 0.05 0.07
0.00 0.00 0.00 0.01 0.06 0.03 0.01 0.00 0.01 0.00 0.01 0.07 0.08 0.12 0.14 0.16 0.16 0.12 0.09 0.04 0.02 0.02 0.02 0.01 0.00 0.00 0.00 0.01 0.01 0.03 0.06 0.06
0.00 0.00 0.00 0.00 0.00 0.00 0.00 0.00 0.01 0.01 0.01 0.03 0.07 0.12 0.17 0.22 0.19 0.13 0.06 0.03 0.02 0.01 0.01 0.00 0.00 0.01 0.01 0.03 0.05 0.05 0.05 0.05
0.00 0.00 0.00 0.00 0.00 0.00 0.01 0.01 0.03 0.05 0.09 0.12 0.19 0.20 0.20 0.16 0.13 0.08 0.04 0.03 0.03 0.02 0.01 0.02 0.03 0.05 0.06 0.07 0.04 0.03 0.02 0.02
0.00 0.00 0.00 0.00 0.00 0.00 0.04 0.05 0.06 0.15 0.16 0.14 0.14 0.12 0.10 0.10 0.09 0.07 0.04 0.04 0.04 0.04 0.03 0.04 0.05 0.05 0.04 0.03 0.02 0.00 0.01 0.01
0.00 0.01 0.00 0.00 0.01 0.06 0.08 0.09 0.13 0.20 0.16 0.12 0.10 0.10 0.12 0.07 0.05 0.04 0.03 0.04 0.03 0.02 0.02 0.02 0.02 0.04 0.03 0.00 0.00 0.01 0.01 0.00
0.01 0.00 0.01 0.02 0.04 0.09 0.09 0.10 0.10 0.09 0.09 0.09 0.07 0.05 0.03 0.04 0.05 0.04 0.04 0.03 0.02 0.01 0.02 0.08 0.10 0.07 0.04 0.02 0.00 0.00 0.00 0.00
0.00 0.00 0.00 0.02 0.03 0.03 0.03 0.04 0.05 0.04 0.04 0.04 0.04 0.03 0.04 0.05 0.03 0.03 0.02 0.04 0.04 0.07 0.16 0.18 0.12 0.08 0.05 0.01 0.00 0.00 0.00 0.00
0.00 0.00 0.00 0.00 0.01 0.03 0.02 0.02 0.01 0.02 0.04 0.05 0.04 0.04 0.04 0.02 0.03 0.02 0.02 0.08 0.25 0.32 0.23 0.14 0.08 0.04 0.01 0.00 0.00 0.00 0.00 0.00
0.00 0.00 0.00 0.00 0.00 0.02 0.02 0.02 0.02 0.02 0.02 0.02 0.02 0.02 0.02 0.04 0.06 0.05 0.21 0.37 0.31 0.20 0.11 0.03 0.00 0.00 0.00 0.00 0.00 0.00 0.00 0.00

GFSFLT1_prec_precacc_048.txt.gz
Total_Precipitation_Accumulation
0.02 0.08 0.06 0.03 0.07 0.46 0.73 0.72 0.98 1.26 1.07 0.32 0.07 0.03 0.05 0.03 0.04 0.02 0.01 0.02 0.01 0.00 0.00 0.00 0.00 0.00 0.00 0.00 0.00 0.00 0.00 0.00
0.05 0.08 0.11 0.12 0.19 0.54 0.68 0.82 0.63 0.31 0.10 0.06 0.04 0.04 0.06 0.03 0.01 0.00 0.00 0.01 0.00 0.00 0.00 0.00 0.00 0.00 0.00 0.00 0.00 0.00 0.00 0.00
0.01 0.02 0.08 0.22 0.43 0.48 0.40 0.31 0.16 0.10 0.07 0.07 0.05 0.03 0.01 0.00 0.00 0.00 0.00 0.00 0.00 0.00 0.00 0.00 0.00 0.00 0.00 0.00 0.00 0.00 0.00 0.00
0.05 0.09 0.12 0.12 0.10 0.06 0.08 0.13 0.07 0.09 0.06 0.01 0.00 0.00 0.00 0.00 0.01 0.02 0.01 0.00 0.00 0.00 0.00 0.00 0.00 0.00 0.00 0.00 0.00 0.00 0.00 0.00
0.02 0.01 0.01 0.00 0.05 0.08 0.12 0.10 0.09 0.03 0.01 0.00 0.00 0.00 0.00 0.02 0.06 0.03 0.02 0.00 0.00 0.00 0.00 0.00 0.00 0.00 0.00 0.00 0.00 0.00 0.00 0.00
0.02 0.01 0.03 0.05 0.04 0.08 0.09 0.10 0.13 0.04 0.02 0.00 0.01 0.01 0.01 0.03 0.04 0.04 0.02 0.01 0.00 0.00 0.00 0.00 0.00 0.00 0.00 0.00 0.00 0.00 0.00 0.00
0.06 0.04 0.06 0.06 0.07 0.20 0.11 0.11 0.08 0.07 0.04 0.01 0.04 0.07 0.07 0.04 0.05 0.03 0.02 0.02 0.02 0.01 0.00 0.00 0.00 0.00 0.00 0.00 0.01 0.01 0.01 0.00
0.02 0.02 0.05 0.05 0.09 0.20 0.10 0.04 0.06 0.04 0.03 0.06 0.10 0.15 0.10 0.08 0.06 0.05 0.05 0.04 0.04 0.02 0.01 0.00 0.01 0.01 0.02 0.06 0.08 0.04 0.01 0.01
0.01 0.02 0.05 0.07 0.17 0.18 0.08 0.03 0.06 0.06 0.09 0.06 0.08 0.14 0.12 0.13 0.11 0.08 0.06 0.04 0.03 0.02 0.01 0.01 0.04 0.07 0.08 0.05 0.03 0.02 0.04 0.06
0.00 0.01 0.00 0.02 0.23 0.17 0.04 0.02 0.01 0.03 0.12 0.11 0.06 0.16 0.16 0.28 0.17 0.09 0.07 0.07 0.06 0.04 0.03 0.05 0.06 0.02 0.01 0.01 0.02 0.04 0.06 0.07
0.00 0.00 0.00 0.01 0.06 0.05 0.01 0.00 0.01 0.00 0.01 0.07 0.09 0.12 0.15 0.18 0.18 0.14 0.15 0.10 0.06 0.04 0.03 0.01 0.00 0.01 0.01 0.01 0.02 0.05 0.08 0.07
0.00 0.00 0.00 0.00 0.00 0.00 0.00 0.01 0.01 0.01 0.01 0.03 0.07 0.13 0.18 0.23 0.23 0.18 0.12 0.07 0.04 0.03 0.01 0.01 0.01 0.01 0.03 0.06 0.10 0.08 0.07 0.08
0.00 0.00 0.00 0.00 0.00 0.00 0.01 0.01 0.03 0.05 0.09 0.12 0.19 0.20 0.21 0.17 0.16 0.13 0.10 0.08 0.06 0.03 0.03 0.05 0.07 0.07 0.10 0.13 0.10 0.09 0.06 0.02
0.00 0.00 0.00 0.00 0.00 0.00 0.04 0.05 0.06 0.15 0.16 0.14 0.14 0.13 0.11 0.14 0.15 0.13 0.10 0.08 0.06 0.05 0.06 0.06 0.08 0.11 0.11 0.08 0.06 0.04 0.02 0.02
0.00 0.01 0.00 0.00 0.01 0.06 0.08 0.09 0.13 0.20 0.17 0.12 0.11 0.11 0.13 0.10 0.08 0.06 0.05 0.05 0.04 0.02 0.03 0.03 0.04 0.07 0.07 0.06 0.04 0.03 0.02 0.01
0.01 0.00 0.01 0.02 0.04 0.09 0.09 0.12 0.11 0.10 0.12 0.12 0.09 0.05 0.04 0.04 0.05 0.04 0.04 0.03 0.02 0.02 0.04 0.11 0.14 0.10 0.08 0.07 0.04 0.02 0.01 0.00
0.00 0.00 0.00 0.02 0.03 0.03 0.04 0.05 0.05 0.04 0.04 0.04 0.04 0.03 0.04 0.05 0.03 0.03 0.02 0.04 0.04 0.07 0.17 0.19 0.15 0.12 0.11 0.06 0.03 0.02 0.00 0.00
0.00 0.00 0.00 0.00 0.01 0.03 0.02 0.02 0.01 0.02 0.04 0.05 0.04 0.04 0.04 0.02 0.03 0.02 0.03 0.08 0.25 0.33 0.25 0.18 0.12 0.06 0.03 0.01 0.00 0.00 0.00 0.00
0.00 0.00 0.00 0.00 0.00 0.02 0.02 0.02 0.02 0.02 0.02 0.02 0.02 0.02 0.02 0.04 0.06 0.05 0.21 0.37 0.33 0.23 0.12 0.04 0.01 0.00 0.00 0.00 0.00 0.00 0.00 0.00

GFSFLT1_prec_precacc_051.txt.gz
Total_Precipitation_Accumulation
0.02 0.08 0.06 0.03 0.07 0.46 0.73 0.72 1.00 1.29 1.09 0.32 0.07 0.03 0.05 0.05 0.08 0.05 0.04 0.04 0.01 0.00 0.00 0.00 0.00 0.00 0.00 0.00 0.00 0.00 0.00 0.00
0.05 0.08 0.11 0.12 0.19 0.54 0.68 0.82 0.64 0.36 0.11 0.06 0.04 0.04 0.06 0.03 0.04 0.01 0.02 0.02 0.00 0.00 0.00 0.00 0.00 0.00 0.00 0.00 0.00 0.00 0.00 0.00
0.01 0.02 0.08 0.22 0.43 0.48 0.40 0.31 0.17 0.16 0.10 0.07 0.05 0.03 0.01 0.00 0.01 0.02 0.02 0.03 0.00 0.00 0.00 0.00 0.00 0.00 0.00 0.00 0.00 0.00 0.00 0.00
0.05 0.09 0.12 0.12 0.10 0.06 0.08 0.13 0.08 0.12 0.06 0.01 0.00 0.00 0.00 0.00 0.01 0.03 0.03 0.01 0.00 0.00 0.00 0.00 0.00 0.00 0.00 0.00 0.00 0.00 0.00 0.00
0.02 0.01 0.01 0.00 0.05 0.08 0.12 0.10 0.09 0.03 0.01 0.00 0.00 0.00 0.00 0.02 0.06 0.03 0.03 0.03 0.02 0.00 0.00 0.00 0.00 0.00 0.00 0.00 0.00 0.00 0.00 0.00
0.02 0.01 0.03 0.05 0.04 0.08 0.09 0.10 0.13 0.04 0.02 0.00 0.01 0.01 0.01 0.03 0.04 0.05 0.03 0.01 0.01 0.01 0.01 0.01 0.00 0.00 0.00 0.00 0.00 0.00 0.00 0.00
0.06 0.04 0.06 0.06 0.07 0.20 0.11 0.11 0.08 0.07 0.04 0.01 0.04 0.07 0.07 0.04 0.05 0.04 0.03 0.02 0.02 0.02 0.02 0.01 0.01 0.00 0.00 0.00 0.01 0.01 0.01 0.00
0.02 0.02 0.05 0.05 0.09 0.20 0.10 0.04 0.06 0.04 0.03 0.06 0.10 0.15 0.10 0.08 0.06 0.05 0.05 0.04 0.04 0.03 0.03 0.02 0.01 0.01 0.02 0.06 0.08 0.04 0.01 0.01
0.01 0.02 0.05 0.07 0.17 0.18 0.08 0.03 0.06 0.06 0.12 0.16 0.14 0.15 0.12 0.13 0.11 0.08 0.06 0.05 0.04 0.03 0.02 0.02 0.04 0.07 0.08 0.05 0.03 0.03 0.04 0.06
0.00 0.01 0.00 0.02 0.23 0.17 0.04 0.02 0.01 0.03 0.15 0.22 0.13 0.21 0.17 0.28 0.17 0.10 0.09 0.12 0.08 0.05 0.05 0.06 0.06 0.02 0.02 0.03 0.05 0.05 0.06 0.08
0.00 0.00 0.00 0.01 0.06 0.05 0.01 0.00 0.01 0.00 0.01 0.07 0.09 0.12 0.17 0.19 0.19 0.19 0.22 0.16 0.09 0.06 0.04 0.02 0.01 0.02 0.02 0.01 0.02 0.05 0.12 0.11
0.00 0.00 0.00 0.00 0.00 0.00 0.00 0.01 0.01 0.01 0.01 0.03 0.07 0.14 0.18 0.24 0.24 0.23 0.16 0.09 0.06 0.04 0.03 0.02 0.01 0.02 0.04 0.08 0.13 0.11 0.11 0.15
0.00 0.00 0.00 0.00 0.00 0.00 0.01 0.01 0.03 0.05 0.09 0.12 0.20 0.21 0.21 0.18 0.17 0.14 0.10 0.09 0.07 0.04 0.05 0.10 0.12 0.17 0.24 0.26 0.16 0.13 0.13 0.10
0.00 0.00 0.00 0.00 0.00 0.00 0.04 0.05 0.06 0.15 0.16 0.14 0.15 0.15 0.12 0.15 0.15 0.13 0.11 0.09 0.08 0.08 0.09 0.12 0.18 0.19 0.14 0.10 0.09 0.11 0.11 0.07
0.00 0.01 0.00 0.00 0.01 0.06 0.08 0.09 0.13 0.20 0.17 0.13 0.12 0.12 0.15 0.11 0.09 0.07 0.05 0.06 0.04 0.03 0.03 0.03 0.04 0.08 0.10 0.11 0.12 0.11 0.07 0.02
0.01 0.00 0.01 0.02 0.04 0.09 0.09 0.12 0.12 0.12 0.15 0.15 0.11 0.07 0.05 0.05 0.06 0.04 0.04 0.03 0.02 0.02 0.04 0.11 0.14 0.12 0.10 0.09 0.05 0.03 0.01 0.01
0.00 0.00 0.00 0.02 0.03 0.04 0.05 0.07 0.06 0.05 0.05 0.05 0.04 0.03 0.04 0.05 0.03 0.03 0.02 0.04 0.04 0.07 0.17 0.19 0.15 0.12 0.11 0.07 0.04 0.02 0.01 0.00
0.00 0.00 0.00 0.00 0.01 0.05 0.02 0.02 0.02 0.02 0.04 0.05 0.04 0.04 0.04 0.02 0.03 0.02 0.03 0.08 0.25 0.33 0.25 0.18 0.12 0.06 0.05 0.01 0.01 0.00 0.00 0.00
0.00 0.00 0.00 0.00 0.00 0.02 0.02 0.02 0.02 0.02 0.02 0.02 0.02 0.02 0.02 0.04 0.06 0.05 0.21 0.37 0.33 0.23 0.12 0.04 0.01 0.00 0.00 0.00 0.00 0.00 0.00 0.00

GFSFLT1_prec_precacc_057.txt.gz
Total_Precipitation_Accumulation
0.02 0.08 0.06 0.03 0.07 0.46 0.73 0.72 1.00 1.30 1.10 0.32 0.07 0.04 0.05 0.05 0.08 0.05 0.08 0.10 0.08 0.07 0.05 0.03 0.04 0.01 0.00 0.00 0.00 0.00 0.00 0.00
0.05 0.08 0.11 0.12 0.19 0.54 0.68 0.82 0.64 0.36 0.12 0.06 0.04 0.04 0.06 0.03 0.04 0.01 0.04 0.07 0.04 0.07 0.09 0.07 0.08 0.00 0.00 0.00 0.00 0.00 0.00 0.00
0.01 0.02 0.08 0.22 0.43 0.48 0.40 0.31 0.17 0.16 0.10 0.07 0.05 0.03 0.01 0.00 0.01 0.03 0.06 0.10 0.04 0.04 0.07 0.04 0.03 0.00 0.00 0.00 0.00 0.00 0.00 0.00
0.05 0.09 0.12 0.12 0.10 0.06 0.08 0.13 0.08 0.12 0.06 0.01 0.00 0.00 0.00 0.00 0.01 0.03 0.04 0.04 0.03 0.00 0.04 0.01 0.00 0.00 0.00 0.00 0.00 0.00 0.00 0.00
0.02 0.01 0.01 0.00 0.05 0.08 0.12 0.10 0.09 0.03 0.01 0.01 0.00 0.00 0.00 0.02 0.06 0.03 0.04 0.05 0.05 0.02 0.01 0.00 0.00 0.00 0.00 0.00 0.00 0.00 0.00 0.00
0.02 0.01 0.03 0.05 0.04 0.08 0.09 0.10 0.13 0.04 0.02 0.00 0.02 0.01 0.01 0.03 0.04 0.05 0.03 0.02 0.03 0.03 0.01 0.03 0.01 0.01 0.01 0.00 0.00 0.00 0.00 0.00
0.06 0.04 0.06 0.06 0.07 0.20 0.11 0.11 0.08 0.07 0.04 0.01 0.06 0.13 0.08 0.06 0.05 0.04 0.05 0.04 0.02 0.04 0.04 0.03 0.04 0.04 0.05 0.04 0.04 0.05 0.04 0.02
0.02 0.02 0.05 0.05 0.09 0.20 0.10 0.04 0.06 0.04 0.03 0.06 0.10 0.21 0.17 0.17 0.09 0.06 0.13 0.09 0.05 0.07 0.14 0.08 0.05 0.07 0.06 0.08 0.10 0.07 0.05 0.04
0.01 0.02 0.05 0.07 0.17 0.18 0.08 0.03 0.06 0.06 0.13 0.25 0.22 0.21 0.28 0.40 0.30 0.15 0.24 0.15 0.10 0.12 0.13 0.21 0.13 0.11 0.10 0.08 0.07 0.08 0.11 0.14
0.00 0.01 0.00 0.02 0.23 0.17 0.04 0.02 0.02 0.03 0.15 0.26 0.15 0.36 0.63 0.50 0.40 0.34 0.33 0.34 0.34 0.29 0.34 0.34 0.27 0.16 0.08 0.06 0.08 0.08 0.09 0.13
0.00 0.00 0.00 0.01 0.06 0.05 0.01 0.02 0.06 0.04 0.05 0.09 0.12 0.18 0.30 0.36 0.32 0.27 0.40 0.50 0.35 0.43 0.41 0.29 0.14 0.05 0.03 0.03 0.03 0.08 0.19 0.25
0.00 0.00 0.00 0.00 0.00 0.00 0.00 0.01 0.08 0.12 0.30 0.33 0.25 0.34 0.34 0.42 0.31 0.37 0.28 0.24 0.35 0.38 0.17 0.06 0.03 0.04 0.07 0.13 0.21 0.25 0.27 0.30
0.00 0.00 0.00 0.00 0.00 0.00 0.01 0.01 0.12 0.27 0.67 0.85 0.57 0.67 0.55 0.44 0.33 0.24 0.25 0.18 0.14 0.09 0.07 0.10 0.14 0.23 0.32 0.36 0.28 0.23 0.21 0.18
0.00 0.00 0.00 0.00 0.01 0.01 0.04 0.13 0.25 0.52 0.67 0.69 0.46 0.50 0.55 0.46 0.38 0.21 0.13 0.13 0.12 0.10 0.10 0.13 0.19 0.21 0.18 0.14 0.14 0.15 0.15 0.12
0.00 0.01 0.00 0.00 0.01 0.06 0.13 0.28 0.32 0.43 0.32 0.26 0.17 0.19 0.38 0.18 0.16 0.14 0.10 0.09 0.07 0.06 0.05 0.05 0.06 0.10 0.12 0.13 0.14 0.13 0.08 0.03
0.01 0.00 0.01 0.02 0.04 0.09 0.11 0.15 0.19 0.26 0.31 0.28 0.22 0.10 0.10 0.09 0.10 0.09 0.07 0.08 0.04 0.03 0.05 0.11 0.14 0.12 0.11 0.09 0.05 0.03 0.01 0.01
0.00 0.00 0.00 0.02 0.03 0.04 0.08 0.10 0.15 0.10 0.07 0.10 0.07 0.04 0.08 0.09 0.08 0.05 0.04 0.05 0.05 0.08 0.17 0.19 0.15 0.12 0.11 0.07 0.04 0.02 0.01 0.00
0.00 0.00 0.01 0.01 0.05 0.10 0.05 0.04 0.04 0.04 0.07 0.10 0.05 0.05 0.06 0.04 0.03 0.02 0.03 0.08 0.25 0.33 0.25 0.18 0.12 0.06 0.05 0.02 0.01 0.00 0.00 0.00
0.00 0.00 0.02 0.08 0.11 0.05 0.04 0.03 0.03 0.03 0.03 0.03 0.04 0.03 0.03 0.04 0.06 0.05 0.21 0.37 0.33 0.23 0.12 0.04 0.01 0.00 0.00 0.00 0.00 0.00 0.00 0.00

GFSFLT1_prec_precacc_063.txt.gz
Total_Precipitation_Accumulation
0.02 0.08 0.06 0.03 0.07 0.46 0.73 0.74 1.04 1.33 1.11 0.34 0.08 0.05 0.05 0.05 0.08 0.05 0.08 0.10 0.08 0.07 0.05 0.03 0.05 0.05 0.00 0.00 0.00 0.00 0.00 0.00
0.05 0.08 0.11 0.12 0.19 0.55 0.68 0.82 0.64 0.36 0.12 0.06 0.05 0.06 0.06 0.03 0.04 0.01 0.05 0.07 0.05 0.07 0.09 0.07 0.09 0.04 0.01 0.00 0.00 0.00 0.00 0.00
0.01 0.02 0.08 0.22 0.43 0.48 0.40 0.31 0.17 0.16 0.10 0.07 0.05 0.03 0.01 0.00 0.01 0.03 0.06 0.10 0.04 0.04 0.07 0.04 0.03 0.02 0.02 0.00 0.00 0.00 0.00 0.00
0.05 0.09 0.12 0.12 0.10 0.06 0.08 0.13 0.08 0.12 0.06 0.01 0.00 0.00 0.00 0.00 0.01 0.03 0.04 0.04 0.03 0.00 0.04 0.01 0.00 0.00 0.00 0.00 0.00 0.01 0.01 0.00
0.02 0.01 0.01 0.00 0.05 0.08 0.12 0.10 0.09 0.03 0.01 0.01 0.00 0.00 0.00 0.02 0.06 0.03 0.04 0.05 0.05 0.02 0.01 0.01 0.00 0.00 0.00 0.00 0.02 0.02 0.03 0.02
0.02 0.01 0.03 0.05 0.04 0.08 0.09 0.10 0.13 0.04 0.02 0.00 0.02 0.01 0.01 0.03 0.04 0.05 0.03 0.02 0.03 0.03 0.02 0.06 0.02 0.01 0.04 0.05 0.03 0.05 0.05 0.03
0.06 0.04 0.06 0.06 0.07 0.20 0.11 0.11 0.08 0.07 0.04 0.01 0.06 0.13 0.08 0.06 0.05 0.04 0.05 0.04 0.02 0.04 0.05 0.03 0.06 0.04 0.09 0.12 0.16 0.12 0.10 0.08
0.02 0.02 0.05 0.05 0.09 0.20 0.10 0.04 0.06 0.04 0.03 0.06 0.10 0.21 0.17 0.17 0.09 0.06 0.13 0.09 0.05 0.07 0.15 0.11 0.09 0.20 0.24 0.31 0.29 0.20 0.18 0.20
0.01 0.02 0.05 0.07 0.17 0.18 0.08 0.03 0.06 0.06 0.13 0.25 0.22 0.21 0.28 0.40 0.30 0.16 0.24 0.15 0.10 0.13 0.21 0.35 0.32 0.32 0.32 0.34 0.40 0.51 0.31 0.24
0.00 0.01 0.00 0.02 0.23 0.17 0.05 0.03 0.02 0.03 0.15 0.26 0.15 0.36 0.63 0.51 0.40 0.37 0.37 0.39 0.36 0.30 0.36 0.47 0.48 0.40 0.51 0.56 0.47 0.25 0.14 0.15
0.00 0.00 0.00 0.01 0.06 0.05 0.02 0.06 0.14 0.14 0.05 0.09 0.12 0.18 0.30 0.40 0.33 0.37 0.59 0.63 0.47 0.51 0.48 0.47 0.41 0.31 0.31 0.33 0.21 0.13 0.21 0.26
0.00 0.00 0.00 0.00 0.00 0.00 0.00 0.01 0.15 0.29 0.46 0.42 0.27 0.37 0.35 0.58 0.60 0.75 0.59 0.55 0.63 0.65 0.41 0.27 0.20 0.31 0.28 0.21 0.27 0.27 0.28 0.31
0.00 0.00 0.00 0.00 0.00 0.00 0.01 0.01 0.13 0.41 1.16 1.24 0.78 0.89 0.78 0.73 0.80 0.77 0.81 0.80 0.74 0.53 0.30 0.21 0.22 0.28 0.37 0.41 0.30 0.25 0.22 0.20
0.00 0.00 0.00 0.00 0.01 0.01 0.04 0.14 0.30 0.89 1.16 1.06 0.83 0.99 1.09 0.72 0.63 0.48 0.32 0.34 0.36 0.25 0.24 0.23 0.29 0.26 0.22 0.15 0.15 0.17 0.18 0.15
0.00 0.01 0.00 0.00 0.01 0.07 0.14 0.29 0.42 0.78 0.56 0.58 0.45 0.43 0.59 0.28 0.32 0.27 0.21 0.16 0.15 0.13 0.09 0.09 0.11 0.14 0.14 0.13 0.15 0.13 0.08 0.03
0.01 0.00 0.01 0.02 0.04 0.09 0.11 0.16 0.23 0.38 0.41 0.42 0.30 0.20 0.22 0.15 0.21 0.21 0.15 0.13 0.11 0.11 0.10 0.15 0.18 0.16 0.13 0.11 0.06 0.04 0.02 0.01
0.00 0.00 0.00 0.02 0.03 0.04 0.08 0.12 0.20 0.15 0.13 0.16 0.13 0.11 0.16 0.16 0.14 0.11 0.09 0.11 0.13 0.13 0.23 0.25 0.20 0.16 0.16 0.10 0.05 0.02 0.01 0.00
0.00 0.00 0.01 0.01 0.05 0.10 0.05 0.05 0.06 0.07 0.11 0.13 0.08 0.08 0.12 0.11 0.10 0.09 0.08 0.13 0.32 0.38 0.29 0.22 0.16 0.09 0.08 0.03 0.02 0.00 0.00 0.00
0.00 0.00 0.02 0.08 0.11 0.05 0.04 0.03 0.04 0.04 0.05 0.06 0.08 0.07 0.09 0.12 0.13 0.09 0.27 0.42 0.36 0.25 0.15 0.06 0.02 0.01 0.01 0.00 0.00 0.00 0.00 0.00

GFSFLT1_prec_precacc_069.txt.gz
Total_Precipitation_Accumulation
0.02 0.08 0.06 0.03 0.07 0.46 0.74 0.81 1.24 1.58 1.25 0.51 0.16 0.13 0.09 0.10 0.18 0.12 0.09 0.10 0.08 0.07 0.05 0.03 0.05 0.05 0.00 0.00 0.00 0.00 0.00 0.00
0.05 0.08 0.11 0.12 0.20 0.55 0.68 0.83 0.68 0.43 0.16 0.16 0.11 0.12 0.08 0.06 0.08 0.08 0.08 0.07 0.05 0.07 0.09 0.08 0.10 0.05 0.02 0.00 0.01 0.01 0.01 0.00
0.01 0.02 0.08 0.22 0.43 0.48 0.40 0.31 0.17 0.16 0.11 0.09 0.07 0.09 0.06 0.03 0.04 0.07 0.09 0.10 0.05 0.08 0.09 0.05 0.05 0.05 0.05 0.03 0.04 0.02 0.03 0.01
0.05 0.09 0.12 0.12 0.10 0.06 0.08 0.13 0.08 0.12 0.06 0.03 0.02 0.05 0.10 0.05 0.05 0.09 0.09 0.06 0.05 0.03 0.11 0.09 0.08 0.05 0.05 0.06 0.06 0.04 0.03 0.02
0.02 0.01 0.01 0.00 0.05 0.08 0.12 0.10 0.09 0.03 0.01 0.01 0.01 0.01 0.04 0.06 0.07 0.06 0.08 0.07 0.06 0.02 0.02 0.03 0.05 0.05 0.05 0.05 0.06 0.03 0.03 0.03
0.02 0.01 0.03 0.05 0.04 0.08 0.09 0.10 0.13 0.04 0.02 0.00 0.02 0.01 0.01 0.04 0.06 0.07 0.06 0.04 0.04 0.04 0.02 0.07 0.03 0.02 0.05 0.06 0.05 0.05 0.06 0.05
0.06 0.04 0.06 0.06 0.07 0.20 0.11 0.11 0.08 0.07 0.04 0.01 0.06 0.13 0.08 0.06 0.05 0.04 0.05 0.04 0.02 0.05 0.05 0.04 0.06 0.04 0.09 0.12 0.16 0.15 0.19 0.18
0.02 0.02 0.05 0.05 0.09 0.20 0.10 0.04 0.06 0.04 0.03 0.06 0.10 0.21 0.17 0.17 0.09 0.06 0.13 0.09 0.05 0.07 0.15 0.11 0.09 0.20 0.24 0.31 0.33 0.30 0.33 0.43
0.01 0.02 0.05 0.07 0.17 0.18 0.08 0.03 0.06 0.06 0.13 0.25 0.22 0.21 0.28 0.40 0.30 0.16 0.24 0.15 0.10 0.13 0.21 0.35 0.32 0.32 0.32 0.35 0.46 0.63 0.73 0.68
0.00 0.01 0.00 0.02 0.23 0.17 0.05 0.03 0.02 0.03 0.15 0.26 0.15 0.36 0.63 0.51 0.40 0.37 0.37 0.39 0.36 0.30 0.36 0.47 0.48 0.40 0.51 0.58 0.56 0.41 0.32 0.28
0.00 0.00 0.00 0.01 0.06 0.05 0.02 0.07 0.21 0.18 0.06 0.09 0.12 0.18 0.30 0.40 0.33 0.37 0.59 0.63 0.47 0.52 0.50 0.49 0.42 0.31 0.32 0.35 0.31 0.25 0.29 0.31
0.00 0.00 0.00 0.00 0.00 0.00 0.00 0.01 0.16 0.37 0.59 0.48 0.27 0.37 0.35 0.58 0.60 0.75 0.59 0.55 0.64 0.68 0.48 0.36 0.29 0.43 0.47 0.36 0.36 0.36 0.37 0.39
0.00 0.00 0.00 0.00 0.00 0.00 0.01 0.01 0.13 0.43 1.29 1.38 0.85 0.90 0.78 0.75 0.81 0.77 0.81 0.80 0.75 0.58 0.39 0.31 0.33 0.39 0.57 0.72 0.62 0.53 0.48 0.43
0.00 0.00 0.00 0.00 0.01 0.01 0.04 0.14 0.31 0.90 1.19 1.15 0.92 1.03 1.14 0.94 0.79 0.55 0.34 0.34 0.39 0.34 0.35 0.31 0.34 0.34 0.34 0.33 0.33 0.34 0.33 0.29
0.00 0.01 0.00 0.00 0.01 0.07 0.14 0.29 0.42 0.78 0.57 0.58 0.49 0.47 0.65 0.32 0.33 0.27 0.22 0.16 0.17 0.19 0.15 0.15 0.15 0.18 0.21 0.22 0.26 0.25 0.17 0.09
0.01 0.00 0.01 0.02 0.04 0.09 0.11 0.16 0.23 0.38 0.41 0.42 0.31 0.24 0.27 0.19 0.24 0.23 0.16 0.13 0.13 0.16 0.15 0.18 0.21 0.19 0.20 0.20 0.15 0.08 0.05 0.06
0.00 0.00 0.00 0.02 0.03 0.04 0.08 0.12 0.20 0.15 0.13 0.16 0.13 0.12 0.19 0.19 0.18 0.18 0.15 0.18 0.23 0.26 0.36 0.36 0.27 0.25 0.35 0.24 0.13 0.06 0.03 0.03
0.00 0.00 0.01 0.01 0.05 0.10 0.05 0.05 0.06 0.07 0.11 0.13 0.08 0.09 0.15 0.14 0.14 0.16 0.16 0.23 0.45 0.54 0.44 0.37 0.26 0.18 0.25 0.20 0.14 0.04 0.03 0.03
0.00 0.00 0.02 0.08 0.11 0.05 0.04 0.03 0.04 0.04 0.05 0.06 0.08 0.07 0.12 0.16 0.19 0.15 0.34 0.50 0.47 0.37 0.26 0.16 0.13 0.14 0.17 0.10 0.09 0.02 0.03 0.03

GFSFLT1_prec_precacc_072.txt.gz
Total_Precipitation_Accumulation
0.02 0.08 0.06 0.03 0.07 0.47 0.75 0.82 1.31 1.78 1.38 0.59 0.24 0.23 0.21 0.22 0.27 0.14 0.10 0.10 0.08 0.07 0.05 0.03 0.05 0.05 0.00 0.00 0.00 0.00 0.00 0.00
0.05 0.08 0.11 0.12 0.20 0.55 0.69 0.84 0.71 0.49 0.24 0.19 0.17 0.17 0.14 0.13 0.14 0.11 0.08 0.07 0.05 0.07 0.09 0.08 0.10 0.05 0.02 0.00 0.01 0.03 0.01 0.00
0.01 0.02 0.08 0.22 0.43 0.48 0.40 0.31 0.18 0.17 0.13 0.10 0.11 0.13 0.09 0.05 0.09 0.10 0.12 0.11 0.05 0.08 0.09 0.05 0.05 0.05 0.05 0.03 0.04 0.03 0.05 0.05
0.05 0.09 0.12 0.12 0.10 0.06 0.09 0.14 0.08 0.12 0.06 0.04 0.04 0.08 0.13 0.07 0.09 0.14 0.16 0.07 0.05 0.03 0.11 0.09 0.08 0.05 0.05 0.06 0.06 0.04 0.04 0.05
0.02 0.01 0.01 0.00 0.05 0.08 0.12 0.10 0.09 0.03 0.01 0.01 0.01 0.01 0.04 0.06 0.07 0.09 0.18 0.13 0.06 0.03 0.02 0.04 0.05 0.05 0.08 0.07 0.06 0.04 0.06 0.11
0.02 0.01 0.03 0.05 0.04 0.08 0.09 0.10 0.13 0.04 0.02 0.00 0.02 0.01 0.01 0.05 0.07 0.10 0.16 0.19 0.06 0.05 0.03 0.09 0.05 0.03 0.11 0.13 0.07 0.06 0.07 0.12
0.06 0.04 0.06 0.06 0.07 0.20 0.11 0.11 0.08 0.07 0.04 0.01 0.06 0.13 0.08 0.06 0.07 0.05 0.08 0.12 0.07 0.06 0.06 0.06 0.10 0.08 0.15 0.18 0.22 0.21 0.23 0.22
0.02 0.02 0.05 0.05 0.09 0.20 0.10 0.04 0.06 0.04 0.03 0.06 0.10 0.21 0.17 0.17 0.09 0.06 0.13 0.09 0.05 0.08 0.15 0.11 0.10 0.22 0.26 0.34 0.37 0.35 0.36 0.45
0.01 0.02 0.05 0.07 0.17 0.18 0.08 0.03 0.06 0.06 0.13 0.25 0.22 0.21 0.28 0.40 0.30 0.16 0.24 0.15 0.10 0.13 0.21 0.36 0.32 0.33 0.34 0.38 0.48 0.64 0.74 0.69
0.00 0.01 0.00 0.02 0.23 0.17 0.05 0.03 0.02 0.03 0.15 0.26 0.15 0.36 0.63 0.51 0.40 0.37 0.37 0.39 0.36 0.30 0.36 0.47 0.48 0.40 0.52 0.59 0.56 0.41 0.32 0.28
0.00 0.00 0.00 0.01 0.06 0.05 0.02 0.07 0.21 0.18 0.06 0.09 0.12 0.18 0.30 0.40 0.33 0.37 0.59 0.63 0.47 0.52 0.50 0.49 0.42 0.31 0.32 0.35 0.31 0.25 0.29 0.31
0.00 0.00 0.00 0.00 0.00 0.00 0.00 0.01 0.16 0.37 0.59 0.48 0.27 0.37 0.35 0.58 0.60 0.75 0.59 0.55 0.64 0.68 0.48 0.36 0.29 0.43 0.47 0.36 0.36 0.36 0.37 0.39
0.00 0.00 0.00 0.00 0.00 0.00 0.01 0.01 0.13 0.43 1.29 1.38 0.85 0.90 0.78 0.75 0.81 0.77 0.81 0.80 0.75 0.58 0.39 0.31 0.33 0.39 0.57 0.72 0.62 0.54 0.50 0.46
0.00 0.00 0.00 0.00 0.01 0.01 0.04 0.14 0.31 0.90 1.19 1.15 0.92 1.03 1.14 0.94 0.79 0.55 0.34 0.34 0.39 0.34 0.35 0.31 0.34 0.34 0.34 0.33 0.34 0.38 0.42 0.43
0.00 0.01 0.00 0.00 0.01 0.07 0.14 0.29 0.42 0.78 0.57 0.58 0.49 0.47 0.65 0.32 0.33 0.27 0.22 0.16 0.17 0.19 0.15 0.15 0.15 0.18 0.21 0.22 0.27 0.29 0.26 0.23
0.01 0.00 0.01 0.02 0.04 0.09 0.11 0.16 0.23 0.38 0.41 0.42 0.31 0.24 0.27 0.19 0.24 0.23 0.16 0.13 0.13 0.16 0.15 0.18 0.21 0.19 0.20 0.20 0.17 0.15 0.15 0.17
0.00 0.00 0.00 0.02 0.03 0.04 0.08 0.12 0.20 0.15 0.13 0.16 0.13 0.12 0.19 0.19 0.18 0.18 0.15 0.18 0.23 0.26 0.36 0.36 0.27 0.25 0.35 0.25 0.14 0.07 0.05 0.05
0.00 0.00 0.01 0.01 0.05 0.10 0.05 0.05 0.06 0.07 0.11 0.13 0.08 0.09 0.15 0.14 0.14 0.16 0.16 0.23 0.45 0.54 0.44 0.37 0.26 0.18 0.25 0.20 0.15 0.04 0.04 0.04
0.00 0.00 0.02 0.08 0.11 0.05 0.04 0.03 0.04 0.04 0.05 0.06 0.08 0.07 0.12 0.16 0.19 0.15 0.34 0.50 0.47 0.37 0.27 0.16 0.13 0.14 0.17 0.11 0.12 0.04 0.05 0.06

GFSFLT1_prec_precacc_075.txt.gz
Total_Precipitation_Accumulation
0.02 0.08 0.06 0.03 0.07 0.47 0.76 0.83 1.32 1.79 1.48 0.64 0.37 0.36 0.26 0.29 0.28 0.15 0.10 0.10 0.08 0.07 0.05 0.03 0.05 0.05 0.00 0.00 0.00 0.00 0.00 0.00
0.05 0.08 0.11 0.12 0.20 0.55 0.70 0.85 0.71 0.50 0.30 0.27 0.22 0.23 0.16 0.16 0.15 0.11 0.08 0.07 0.05 0.07 0.09 0.08 0.10 0.05 0.02 0.00 0.01 0.03 0.01 0.00
0.01 0.02 0.08 0.22 0.43 0.48 0.41 0.32 0.18 0.17 0.13 0.12 0.12 0.13 0.10 0.06 0.09 0.10 0.12 0.11 0.05 0.08 0.09 0.05 0.05 0.05 0.05 0.03 0.04 0.03 0.05 0.05
0.05 0.09 0.12 0.12 0.10 0.06 0.09 0.14 0.08 0.13 0.07 0.05 0.05 0.13 0.22 0.14 0.13 0.15 0.16 0.07 0.05 0.03 0.11 0.09 0.08 0.05 0.05 0.06 0.06 0.05 0.10 0.06
0.02 0.01 0.01 0.00 0.05 0.08 0.12 0.10 0.09 0.03 0.01 0.02 0.01 0.02 0.08 0.10 0.11 0.10 0.18 0.13 0.06 0.03 0.02 0.04 0.05 0.05 0.08 0.07 0.06 0.04 0.16 0.22
0.02 0.01 0.03 0.05 0.04 0.08 0.09 0.10 0.13 0.04 0.02 0.01 0.02 0.02 0.02 0.06 0.11 0.16 0.19 0.22 0.07 0.05 0.03 0.09 0.06 0.03 0.13 0.18 0.11 0.08 0.14 0.23
0.06 0.04 0.06 0.06 0.07 0.20 0.11 0.11 0.08 0.07 0.05 0.02 0.06 0.13 0.09 0.06 0.08 0.06 0.11 0.17 0.12 0.07 0.06 0.06 0.10 0.10 0.17 0.22 0.27 0.27 0.31 0.31
0.02 0.02 0.05 0.05 0.09 0.20 0.10 0.04 0.06 0.04 0.03 0.06 0.10 0.21 0.18 0.17 0.09 0.06 0.13 0.10 0.07 0.08 0.16 0.12 0.10 0.23 0.27 0.37 0.40 0.38 0.41 0.49
0.01 0.02 0.05 0.07 0.17 0.18 0.08 0.03 0.06 0.06 0.13 0.25 0.22 0.21 0.28 0.40 0.30 0.16 0.24 0.15 0.10 0.13 0.21 0.36 0.32 0.33 0.34 0.38 0.49 0.67 0.77 0.73
0.00 0.01 0.00 0.02 0.23 0.17 0.05 0.03 0.02 0.03 0.15 0.26 0.15 0.36 0.63 0.51 0.40 0.37 0.37 0.39 0.36 0.30 0.36 0.47 0.48 0.40 0.52 0.60 0.58 0.43 0.34 0.30
0.00 0.00 0.00 0.01 0.06 0.05 0.02 0.07 0.21 0.18 0.06 0.09 0.12 0.18 0.30 0.40 0.33 0.37 0.59 0.63 0.47 0.52 0.50 0.49 0.42 0.31 0.33 0.37 0.33 0.26 0.32 0.34
0.00 0.00 0.00 0.00 0.00 0.00 0.00 0.01 0.16 0.37 0.59 0.48 0.27 0.37 0.35 0.58 0.60 0.75 0.59 0.55 0.64 0.68 0.48 0.36 0.29 0.43 0.48 0.37 0.37 0.37 0.38 0.42
0.00 0.00 0.00 0.00 0.00 0.00 0.01 0.01 0.13 0.43 1.29 1.38 0.85 0.90 0.78 0.75 0.81 0.77 0.81 0.80 0.75 0.58 0.39 0.31 0.33 0.39 0.57 0.72 0.62 0.54 0.50 0.47
0.00 0.00 0.00 0.00 0.01 0.01 0.04 0.14 0.31 0.90 1.19 1.15 0.92 1.03 1.14 0.94 0.79 0.55 0.34 0.34 0.39 0.34 0.35 0.31 0.34 0.34 0.34 0.33 0.34 0.38 0.42 0.43
0.00 0.01 0.00 0.00 0.01 0.07 0.14 0.29 0.42 0.78 0.57 0.58 0.49 0.47 0.65 0.32 0.33 0.27 0.22 0.16 0.17 0.19 0.15 0.15 0.15 0.18 0.21 0.22 0.27 0.29 0.27 0.23
0.01 0.00 0.01 0.02 0.04 0.09 0.11 0.16 0.23 0.38 0.41 0.42 0.31 0.24 0.27 0.19 0.24 0.23 0.16 0.13 0.13 0.16 0.15 0.18 0.21 0.19 0.20 0.20 0.17 0.15 0.15 0.17
0.00 0.00 0.00 0.02 0.03 0.04 0.08 0.12 0.20 0.15 0.13 0.16 0.13 0.12 0.19 0.19 0.18 0.18 0.15 0.18 0.23 0.26 0.36 0.36 0.27 0.25 0.35 0.25 0.14 0.07 0.05 0.05
0.00 0.00 0.01 0.01 0.05 0.10 0.05 0.05 0.06 0.07 0.11 0.13 0.08 0.09 0.15 0.14 0.14 0.16 0.16 0.23 0.45 0.54 0.44 0.37 0.26 0.18 0.25 0.20 0.15 0.04 0.04 0.04
0.00 0.00 0.02 0.08 0.11 0.05 0.04 0.03 0.04 0.04 0.05 0.06 0.08 0.07 0.12 0.16 0.19 0.15 0.34 0.50 0.47 0.37 0.27 0.17 0.14 0.15 0.18 0.12 0.13 0.04 0.05 0.06

GFSFLT1_prec_precacc_078.txt.gz
Total_Precipitation_Accumulation
0.02 0.08 0.06 0.03 0.07 0.47 0.76 0.83 1.33 1.80 1.49 0.67 0.38 0.38 0.28 0.30 0.30 0.18 0.12 0.11 0.08 0.07 0.08 0.07 0.09 0.06 0.00 0.00 0.00 0.00 0.00 0.00
0.05 0.08 0.11 0.12 0.20 0.55 0.70 0.85 0.72 0.50 0.31 0.29 0.24 0.26 0.16 0.16 0.15 0.11 0.09 0.07 0.05 0.07 0.09 0.09 0.11 0.05 0.02 0.00 0.01 0.03 0.01 0.00
0.01 0.02 0.08 0.22 0.43 0.48 0.41 0.32 0.19 0.17 0.14 0.12 0.12 0.14 0.11 0.07 0.09 0.10 0.12 0.11 0.05 0.08 0.09 0.05 0.05 0.05 0.05 0.03 0.04 0.03 0.05 0.05
0.05 0.09 0.12 0.12 0.10 0.06 0.09 0.14 0.09 0.13 0.07 0.05 0.05 0.13 0.22 0.16 0.14 0.15 0.16 0.07 0.05 0.03 0.11 0.09 0.08 0.05 0.05 0.06 0.06 0.05 0.10 0.06
0.02 0.01 0.01 0.00 0.05 0.08 0.12 0.10 0.10 0.04 0.02 0.02 0.02 0.02 0.08 0.10 0.11 0.11 0.18 0.13 0.06 0.03 0.02 0.04 0.05 0.05 0.08 0.07 0.06 0.04 0.20 0.25
0.02 0.01 0.03 0.05 0.04 0.08 0.09 0.10 0.13 0.04 0.02 0.01 0.03 0.02 0.02 0.06 0.11 0.16 0.20 0.22 0.07 0.05 0.03 0.09 0.06 0.03 0.13 0.18 0.11 0.12 0.19 0.24
0.06 0.04 0.06 0.06 0.07 0.20 0.11 0.11 0.08 0.07 0.05 0.02 0.07 0.14 0.09 0.06 0.08 0.07 0.11 0.17 0.12 0.07 0.06 0.06 0.10 0.10 0.17 0.23 0.30 0.29 0.37 0.36
0.02 0.02 0.05 0.05 0.09 0.20 0.10 0.04 0.06 0.04 0.03 0.06 0.10 0.22 0.18 0.18 0.09 0.07 0.13 0.10 0.07 0.08 0.16 0.12 0.10 0.23 0.27 0.37 0.41 0.40 0.44 0.52
0.01 0.02 0.05 0.07 0.17 0.18 0.08 0.03 0.06 0.06 0.13 0.25 0.22 0.21 0.28 0.40 0.30 0.16 0.24 0.15 0.10 0.13 0.21 0.36 0.32 0.33 0.35 0.38 0.49 0.67 0.77 0.73
0.00 0.01 0.00 0.02 0.23 0.17 0.05 0.03 0.02 0.03 0.15 0.26 0.16 0.36 0.64 0.51 0.40 0.37 0.37 0.39 0.36 0.30 0.36 0.47 0.48 0.40 0.52 0.60 0.58 0.43 0.34 0.30
0.00 0.00 0.00 0.01 0.06 0.05 0.02 0.07 0.21 0.18 0.06 0.09 0.12 0.18 0.30 0.40 0.34 0.37 0.59 0.63 0.47 0.52 0.50 0.49 0.42 0.31 0.33 0.38 0.33 0.26 0.32 0.34
0.00 0.00 0.00 0.00 0.00 0.00 0.00 0.01 0.16 0.37 0.59 0.48 0.27 0.37 0.35 0.58 0.60 0.75 0.59 0.55 0.64 0.68 0.48 0.36 0.29 0.43 0.48 0.37 0.37 0.37 0.38 0.42
0.00 0.00 0.00 0.00 0.00 0.00 0.01 0.01 0.13 0.43 1.29 1.38 0.85 0.90 0.78 0.75 0.81 0.77 0.81 0.80 0.75 0.58 0.39 0.31 0.33 0.39 0.57 0.72 0.62 0.54 0.50 0.47
0.00 0.00 0.00 0.00 0.01 0.01 0.04 0.14 0.31 0.90 1.19 1.15 0.92 1.03 1.14 0.94 0.79 0.55 0.34 0.34 0.39 0.34 0.36 0.31 0.34 0.34 0.34 0.33 0.34 0.38 0.42 0.43
0.00 0.01 0.00 0.00 0.01 0.07 0.14 0.29 0.42 0.78 0.57 0.58 0.49 0.47 0.65 0.32 0.33 0.27 0.22 0.16 0.17 0.19 0.15 0.15 0.15 0.18 0.21 0.22 0.27 0.29 0.27 0.23
0.01 0.00 0.01 0.02 0.04 0.09 0.11 0.16 0.23 0.38 0.41 0.42 0.31 0.24 0.27 0.19 0.24 0.23 0.16 0.13 0.13 0.16 0.15 0.18 0.21 0.19 0.20 0.20 0.17 0.15 0.15 0.17
0.00 0.00 0.00 0.02 0.03 0.04 0.08 0.12 0.20 0.15 0.13 0.16 0.13 0.12 0.19 0.19 0.18 0.18 0.15 0.18 0.23 0.26 0.36 0.36 0.27 0.25 0.35 0.25 0.14 0.07 0.05 0.05
0.00 0.00 0.01 0.01 0.05 0.10 0.05 0.05 0.06 0.07 0.11 0.13 0.08 0.09 0.15 0.14 0.14 0.16 0.16 0.23 0.45 0.54 0.44 0.37 0.26 0.18 0.25 0.20 0.15 0.04 0.04 0.04
0.00 0.00 0.02 0.08 0.11 0.05 0.04 0.03 0.04 0.04 0.05 0.06 0.08 0.07 0.12 0.16 0.19 0.15 0.34 0.50 0.47 0.37 0.27 0.17 0.14 0.15 0.18 0.13 0.14 0.05 0.05 0.07

GFSFLT1_prec_precacc_084.txt.gz
Total_Precipitation_Accumulation
0.02 0.08 0.06 0.03 0.07 0.47 0.76 0.84 1.33 1.81 1.49 0.67 0.38 0.38 0.28 0.33 0.32 0.22 0.15 0.13 0.09 0.08 0.08 0.13 0.15 0.10 0.01 0.00 0.00 0.00 0.00 0.00
0.05 0.08 0.11 0.12 0.20 0.55 0.70 0.86 0.73 0.52 0.32 0.29 0.24 0.26 0.17 0.18 0.16 0.17 0.12 0.08 0.06 0.08 0.10 0.15 0.14 0.08 0.03 0.00 0.01 0.03 0.01 0.00
0.01 0.02 0.08 0.22 0.43 0.48 0.41 0.32 0.20 0.18 0.15 0.12 0.12 0.14 0.11 0.07 0.10 0.14 0.14 0.12 0.07 0.09 0.10 0.05 0.06 0.07 0.05 0.03 0.04 0.03 0.05 0.05
0.05 0.09 0.12 0.12 0.10 0.06 0.09 0.14 0.09 0.14 0.08 0.06 0.05 0.14 0.23 0.17 0.14 0.16 0.17 0.07 0.05 0.04 0.12 0.09 0.09 0.07 0.06 0.06 0.06 0.05 0.10 0.06
0.02 0.01 0.01 0.00 0.05 0.08 0.12 0.10 0.10 0.04 0.03 0.03 0.02 0.03 0.09 0.10 0.12 0.11 0.18 0.14 0.06 0.03 0.03 0.04 0.06 0.08 0.08 0.07 0.06 0.04 0.20 0.25
0.02 0.01 0.03 0.05 0.04 0.08 0.09 0.10 0.13 0.04 0.03 0.02 0.03 0.03 0.02 0.06 0.11 0.16 0.20 0.22 0.07 0.05 0.03 0.09 0.06 0.05 0.13 0.19 0.11 0.12 0.19 0.24
0.06 0.04 0.06 0.06 0.07 0.20 0.11 0.11 0.08 0.07 0.05 0.03 0.07 0.14 0.09 0.06 0.08 0.07 0.11 0.17 0.12 0.07 0.06 0.06 0.10 0.10 0.18 0.23 0.30 0.31 0.41 0.38
0.02 0.02 0.05 0.05 0.09 0.20 0.10 0.04 0.06 0.04 0.04 0.07 0.11 0.22 0.18 0.18 0.09 0.07 0.13 0.10 0.07 0.08 0.16 0.12 0.10 0.23 0.27 0.39 0.44 0.43 0.47 0.54
0.01 0.02 0.05 0.07 0.17 0.18 0.08 0.03 0.06 0.06 0.13 0.25 0.22 0.21 0.28 0.40 0.30 0.16 0.24 0.15 0.10 0.13 0.21 0.36 0.32 0.33 0.35 0.38 0.50 0.67 0.79 0.75
0.00 0.01 0.00 0.02 0.23 0.17 0.05 0.03 0.02 0.03 0.15 0.27 0.16 0.37 0.64 0.51 0.40 0.37 0.37 0.39 0.36 0.30 0.36 0.47 0.48 0.40 0.52 0.60 0.58 0.43 0.35 0.31
0.00 0.00 0.00 0.01 0.06 0.05 0.02 0.07 0.21 0.18 0.06 0.09 0.12 0.18 0.30 0.40 0.34 0.37 0.59 0.63 0.47 0.52 0.50 0.49 0.42 0.31 0.33 0.38 0.33 0.27 0.32 0.35
0.00 0.00 0.00 0.00 0.00 0.00 0.00 0.01 0.16 0.37 0.59 0.48 0.27 0.37 0.36 0.58 0.60 0.75 0.59 0.55 0.64 0.68 0.48 0.36 0.29 0.43 0.48 0.37 0.37 0.37 0.38 0.42
0.00 0.00 0.00 0.00 0.00 0.00 0.01 0.01 0.13 0.43 1.29 1.38 0.85 0.90 0.78 0.75 0.81 0.77 0.81 0.80 0.75 0.58 0.39 0.31 0.33 0.39 0.57 0.72 0.62 0.54 0.50 0.47
0.00 0.00 0.00 0.02 0.03 0.02 0.05 0.14 0.31 0.90 1.19 1.15 0.92 1.03 1.14 0.94 0.79 0.55 0.34 0.34 0.39 0.34 0.36 0.31 0.34 0.34 0.34 0.33 0.34 0.38 0.42 0.43
0.00 0.01 0.00 0.01 0.05 0.17 0.24 0.33 0.44 0.79 0.57 0.58 0.49 0.47 0.65 0.32 0.33 0.27 0.22 0.16 0.17 0.19 0.15 0.15 0.15 0.18 0.21 0.22 0.27 0.29 0.27 0.23
0.01 0.00 0.01 0.02 0.04 0.13 0.22 0.27 0.31 0.43 0.45 0.44 0.33 0.24 0.29 0.21 0.25 0.23 0.16 0.13 0.13 0.16 0.15 0.18 0.21 0.19 0.20 0.20 0.17 0.15 0.15 0.17
0.00 0.00 0.00 0.02 0.03 0.04 0.10 0.16 0.27 0.23 0.18 0.26 0.18 0.15 0.20 0.19 0.19 0.19 0.16 0.18 0.23 0.26 0.36 0.36 0.27 0.25 0.35 0.25 0.14 0.07 0.05 0.05
0.00 0.00 0.01 0.01 0.05 0.10 0.05 0.05 0.08 0.09 0.13 0.24 0.17 0.13 0.18 0.18 0.21 0.19 0.18 0.24 0.48 0.55 0.45 0.37 0.26 0.18 0.25 0.20 0.15 0.04 0.04 0.04
0.00 0.00 0.02 0.08 0.11 0.05 0.04 0.03 0.04 0.04 0.06 0.09 0.13 0.14 0.18 0.24 0.24 0.19 0.37 0.54 0.50 0.40 0.28 0.18 0.14 0.15 0.18 0.13 0.14 0.05 0.05 0.07

GFSFLT1_prec_precacc_087.txt.gz
Total_Precipitation_Accumulation
0.02 0.08 0.06 0.03 0.07 0.47 0.76 0.84 1.33 1.81 1.49 0.67 0.38 0.39 0.28 0.34 0.36 0.34 0.23 0.27 0.20 0.11 0.10 0.13 0.15 0.10 0.01 0.00 0.00 0.00 0.00 0.00
0.05 0.08 0.11 0.12 0.20 0.55 0.70 0.86 0.73 0.52 0.32 0.30 0.25 0.27 0.17 0.19 0.18 0.26 0.27 0.18 0.12 0.11 0.13 0.16 0.14 0.08 0.03 0.00 0.01 0.03 0.01 0.00
0.01 0.02 0.08 0.22 0.43 0.48 0.41 0.32 0.20 0.18 0.15 0.12 0.12 0.14 0.11 0.08 0.11 0.18 0.31 0.27 0.13 0.13 0.14 0.06 0.06 0.07 0.05 0.03 0.04 0.03 0.05 0.05
0.05 0.09 0.12 0.12 0.10 0.06 0.09 0.14 0.09 0.14 0.08 0.06 0.05 0.14 0.23 0.17 0.16 0.19 0.30 0.15 0.11 0.10 0.20 0.11 0.09 0.07 0.06 0.06 0.06 0.05 0.10 0.06
0.02 0.01 0.01 0.00 0.05 0.08 0.12 0.10 0.10 0.04 0.03 0.03 0.02 0.03 0.09 0.11 0.12 0.11 0.23 0.18 0.10 0.06 0.09 0.08 0.07 0.08 0.08 0.07 0.06 0.04 0.20 0.25
0.02 0.01 0.03 0.05 0.04 0.08 0.09 0.10 0.13 0.04 0.03 0.02 0.03 0.03 0.02 0.07 0.11 0.16 0.20 0.25 0.08 0.07 0.05 0.11 0.07 0.06 0.13 0.19 0.11 0.12 0.19 0.24
0.06 0.04 0.06 0.06 0.07 0.20 0.11 0.11 0.08 0.07 0.05 0.03 0.07 0.14 0.09 0.07 0.08 0.07 0.11 0.18 0.12 0.08 0.07 0.07 0.10 0.11 0.19 0.24 0.31 0.31 0.41 0.38
0.02 0.02 0.05 0.05 0.09 0.20 0.10 0.04 0.06 0.04 0.04 0.07 0.11 0.22 0.18 0.18 0.09 0.07 0.13 0.10 0.07 0.08 0.16 0.12 0.10 0.23 0.28 0.40 0.45 0.45 0.47 0.54
0.01 0.02 0.05 0.07 0.17 0.18 0.08 0.03 0.06 0.06 0.13 0.25 0.22 0.21 0.28 0.40 0.30 0.16 0.24 0.15 0.10 0.13 0.21 0.36 0.32 0.33 0.35 0.39 0.51 0.68 0.80 0.75
0.00 0.01 0.00 0.02 0.23 0.17 0.05 0.03 0.02 0.03 0.15 0.27 0.16 0.37 0.64 0.51 0.40 0.37 0.37 0.39 0.36 0.30 0.36 0.47 0.48 0.40 0.52 0.61 0.59 0.43 0.35 0.32
0.00 0.00 0.00 0.01 0.06 0.05 0.02 0.07 0.21 0.18 0.06 0.09 0.12 0.18 0.30 0.40 0.34 0.37 0.59 0.63 0.47 0.52 0.50 0.49 0.42 0.31 0.33 0.38 0.33 0.27 0.33 0.35
0.00 0.00 0.00 0.00 0.00 0.00 0.00 0.01 0.16 0.37 0.59 0.48 0.27 0.37 0.36 0.58 0.60 0.75 0.59 0.55 0.64 0.68 0.48 0.36 0.29 0.43 0.48 0.37 0.37 0.37 0.38 0.42
0.00 0.00 0.00 0.00 0.00 0.00 0.02 0.03 0.13 0.43 1.29 1.38 0.85 0.90 0.78 0.75 0.81 0.77 0.81 0.80 0.75 0.58 0.39 0.31 0.33 0.39 0.57 0.72 0.62 0.54 0.50 0.47
0.00 0.00 0.00 0.03 0.04 0.04 0.08 0.16 0.31 0.91 1.21 1.16 0.93 1.04 1.14 0.94 0.79 0.55 0.34 0.34 0.39 0.34 0.36 0.31 0.34 0.34 0.34 0.33 0.34 0.38 0.42 0.43
0.02 0.02 0.04 0.06 0.10 0.28 0.37 0.45 0.50 0.84 0.60 0.61 0.52 0.51 0.68 0.34 0.33 0.27 0.22 0.16 0.17 0.19 0.15 0.15 0.15 0.18 0.21 0.22 0.27 0.29 0.27 0.23
0.02 0.01 0.02 0.03 0.06 0.15 0.24 0.29 0.33 0.46 0.52 0.53 0.43 0.30 0.34 0.24 0.27 0.24 0.16 0.13 0.13 0.16 0.15 0.18 0.21 0.19 0.20 0.20 0.17 0.15 0.15 0.17
0.00 0.00 0.00 0.02 0.03 0.04 0.10 0.16 0.27 0.23 0.20 0.29 0.20 0.18 0.24 0.23 0.24 0.28 0.19 0.19 0.24 0.27 0.37 0.36 0.28 0.25 0.35 0.25 0.14 0.07 0.05 0.05
0.01 0.00 0.01 0.01 0.05 0.10 0.05 0.05 0.08 0.09 0.13 0.24 0.17 0.13 0.19 0.19 0.25 0.24 0.21 0.29 0.53 0.57 0.47 0.39 0.28 0.21 0.28 0.22 0.16 0.04 0.04 0.04
0.03 0.01 0.02 0.08 0.11 0.05 0.04 0.03 0.04 0.04 0.06 0.09 0.13 0.14 0.18 0.24 0.24 0.20 0.40 0.59 0.54 0.43 0.30 0.21 0.17 0.16 0.22 0.23 0.25 0.08 0.05 0.07

GFSFLT1_prec_precacc_090.txt.gz
Total_Precipitation_Accumulation
0.02 0.08 0.06 0.03 0.07 0.47 0.76 0.84 1.33 1.81 1.49 0.67 0.38 0.39 0.30 0.36 0.39 0.39 0.41 0.66 0.41 0.17 0.12 0.16 0.16 0.10 0.01 0.00 0.00 0.00 0.00 0.00
0.05 0.08 0.11 0.12 0.20 0.55 0.70 0.86 0.73 0.52 0.32 0.30 0.25 0.28 0.18 0.19 0.20 0.36 0.39 0.36 0.39 0.19 0.16 0.18 0.14 0.08 0.03 0.00 0.01 0.03 0.01 0.00
0.01 0.02 0.08 0.22 0.43 0.48 0.41 0.32 0.20 0.19 0.15 0.12 0.12 0.14 0.12 0.08 0.12 0.21 0.57 0.36 0.32 0.26 0.19 0.09 0.06 0.07 0.05 0.03 0.04 0.03 0.05 0.05
0.05 0.09 0.12 0.12 0.10 0.06 0.09 0.14 0.09 0.14 0.08 0.06 0.05 0.14 0.23 0.17 0.16 0.21 0.43 0.32 0.23 0.26 0.30 0.18 0.11 0.07 0.06 0.06 0.06 0.05 0.10 0.06
0.02 0.01 0.01 0.00 0.05 0.08 0.12 0.10 0.10 0.04 0.03 0.03 0.02 0.03 0.09 0.11 0.12 0.12 0.26 0.27 0.22 0.20 0.24 0.17 0.10 0.08 0.08 0.07 0.06 0.04 0.20 0.25
0.02 0.01 0.03 0.05 0.04 0.08 0.09 0.11 0.13 0.04 0.03 0.02 0.04 0.03 0.02 0.07 0.12 0.16 0.22 0.32 0.15 0.20 0.15 0.22 0.11 0.07 0.14 0.19 0.11 0.12 0.19 0.24
0.06 0.04 0.06 0.06 0.07 0.20 0.11 0.11 0.08 0.08 0.05 0.03 0.07 0.14 0.09 0.07 0.08 0.07 0.11 0.20 0.17 0.16 0.18 0.13 0.15 0.12 0.20 0.24 0.31 0.31 0.41 0.38
0.02 0.02 0.05 0.05 0.09 0.20 0.10 0.04 0.06 0.04 0.04 0.07 0.11 0.22 0.18 0.18 0.09 0.07 0.13 0.10 0.09 0.10 0.20 0.16 0.14 0.24 0.28 0.41 0.45 0.45 0.47 0.54
0.01 0.02 0.05 0.07 0.17 0.18 0.08 0.03 0.06 0.06 0.13 0.25 0.22 0.21 0.28 0.40 0.30 0.16 0.24 0.15 0.10 0.13 0.21 0.37 0.33 0.35 0.35 0.39 0.52 0.69 0.80 0.75
0.00 0.01 0.00 0.02 0.23 0.17 0.05 0.03 0.02 0.03 0.15 0.27 0.16 0.37 0.64 0.51 0.40 0.37 0.37 0.39 0.36 0.30 0.36 0.47 0.48 0.41 0.52 0.61 0.59 0.44 0.36 0.32
0.00 0.00 0.00 0.01 0.06 0.05 0.02 0.07 0.21 0.18 0.06 0.09 0.12 0.18 0.30 0.40 0.34 0.37 0.59 0.63 0.47 0.52 0.50 0.49 0.42 0.31 0.33 0.38 0.33 0.27 0.34 0.36
0.00 0.00 0.00 0.00 0.00 0.00 0.00 0.01 0.16 0.37 0.59 0.48 0.27 0.37 0.36 0.58 0.60 0.75 0.59 0.55 0.64 0.68 0.48 0.36 0.29 0.43 0.48 0.37 0.37 0.37 0.38 0.42
0.00 0.00 0.00 0.00 0.00 0.00 0.02 0.05 0.15 0.43 1.29 1.38 0.86 0.90 0.78 0.75 0.81 0.77 0.81 0.80 0.75 0.58 0.39 0.31 0.33 0.39 0.57 0.72 0.62 0.54 0.50 0.47
0.00 0.00 0.00 0.03 0.04 0.05 0.11 0.19 0.33 0.91 1.21 1.16 0.93 1.04 1.14 0.94 0.79 0.55 0.34 0.34 0.39 0.34 0.36 0.31 0.34 0.34 0.34 0.33 0.34 0.38 0.42 0.43
0.05 0.04 0.05 0.08 0.14 0.34 0.46 0.54 0.58 0.91 0.69 0.68 0.58 0.54 0.70 0.35 0.33 0.27 0.22 0.16 0.17 0.19 0.15 0.15 0.15 0.18 0.21 0.22 0.27 0.29 0.27 0.23
0.04 0.05 0.08 0.11 0.14 0.26 0.33 0.36 0.37 0.52 0.59 0.59 0.46 0.31 0.36 0.25 0.29 0.25 0.16 0.14 0.13 0.16 0.15 0.18 0.21 0.19 0.20 0.20 0.17 0.15 0.15 0.17
0.01 0.00 0.01 0.04 0.04 0.07 0.12 0.18 0.27 0.24 0.23 0.32 0.22 0.18 0.24 0.23 0.26 0.30 0.21 0.22 0.25 0.27 0.37 0.37 0.28 0.25 0.36 0.25 0.14 0.07 0.05 0.05
0.04 0.02 0.01 0.02 0.07 0.12 0.06 0.06 0.09 0.09 0.13 0.25 0.18 0.14 0.20 0.20 0.26 0.25 0.23 0.31 0.53 0.58 0.48 0.40 0.28 0.21 0.33 0.28 0.21 0.06 0.04 0.04
0.20 0.08 0.05 0.09 0.11 0.05 0.04 0.03 0.04 0.04 0.06 0.09 0.13 0.14 0.18 0.24 0.25 0.21 0.41 0.60 0.55 0.46 0.32 0.23 0.19 0.18 0.30 0.32 0.33 0.13 0.07 0.08

GFSFLT1_prec_precacc_093.txt.gz
Total_Precipitation_Accumulation
0.02 0.08 0.06 0.03 0.07 0.47 0.76 0.84 1.33 1.81 1.49 0.67 0.39 0.40 0.30 0.37 0.39 0.41 0.57 1.06 0.66 0.37 0.30 0.21 0.26 0.17 0.04 0.00 0.00 0.00 0.00 0.00
0.05 0.08 0.11 0.12 0.20 0.55 0.70 0.86 0.73 0.52 0.32 0.30 0.25 0.28 0.19 0.20 0.21 0.38 0.46 0.73 0.72 0.31 0.21 0.22 0.18 0.10 0.03 0.00 0.01 0.03 0.01 0.00
0.01 0.02 0.08 0.22 0.43 0.48 0.41 0.32 0.20 0.19 0.15 0.12 0.12 0.14 0.12 0.08 0.12 0.24 0.70 0.58 0.50 0.36 0.21 0.10 0.07 0.07 0.05 0.03 0.04 0.03 0.05 0.05
0.05 0.09 0.12 0.12 0.10 0.06 0.09 0.14 0.09 0.14 0.08 0.06 0.05 0.14 0.23 0.17 0.16 0.22 0.48 0.42 0.35 0.40 0.32 0.19 0.11 0.07 0.06 0.06 0.06 0.05 0.10 0.06
0.02 0.01 0.01 0.00 0.05 0.08 0.12 0.10 0.10 0.04 0.03 0.03 0.02 0.03 0.09 0.11 0.12 0.12 0.28 0.32 0.32 0.35 0.31 0.21 0.12 0.09 0.08 0.07 0.06 0.04 0.20 0.25
0.02 0.01 0.03 0.05 0.04 0.08 0.09 0.11 0.13 0.05 0.03 0.02 0.04 0.03 0.02 0.07 0.12 0.16 0.24 0.33 0.28 0.36 0.36 0.33 0.17 0.09 0.15 0.19 0.11 0.12 0.19 0.24
0.06 0.04 0.06 0.06 0.07 0.20 0.11 0.11 0.08 0.08 0.06 0.03 0.08 0.14 0.09 0.07 0.08 0.07 0.12 0.22 0.20 0.25 0.43 0.33 0.26 0.19 0.24 0.26 0.31 0.31 0.41 0.38
0.02 0.02 0.05 0.05 0.09 0.20 0.10 0.05 0.06 0.04 0.04 0.07 0.11 0.22 0.18 0.18 0.09 0.07 0.13 0.11 0.10 0.10 0.25 0.30 0.25 0.31 0.31 0.44 0.46 0.45 0.47 0.54
0.01 0.02 0.05 0.07 0.17 0.18 0.09 0.04 0.06 0.06 0.14 0.26 0.23 0.21 0.28 0.40 0.30 0.16 0.24 0.15 0.11 0.14 0.22 0.41 0.39 0.36 0.36 0.41 0.52 0.69 0.80 0.75
0.00 0.01 0.00 0.02 0.23 0.17 0.05 0.03 0.02 0.03 0.15 0.27 0.16 0.37 0.64 0.51 0.40 0.37 0.37 0.39 0.37 0.31 0.38 0.49 0.53 0.43 0.53 0.61 0.59 0.44 0.36 0.32
0.00 0.00 0.00 0.01 0.06 0.05 0.02 0.07 0.21 0.18 0.06 0.09 0.12 0.18 0.30 0.40 0.34 0.37 0.59 0.63 0.47 0.52 0.52 0.52 0.44 0.33 0.33 0.38 0.34 0.27 0.34 0.36
0.00 0.00 0.00 0.00 0.00 0.00 0.01 0.01 0.17 0.37 0.59 0.48 0.27 0.37 0.36 0.58 0.60 0.75 0.59 0.55 0.64 0.68 0.48 0.36 0.29 0.43 0.48 0.37 0.37 0.37 0.38 0.42
0.01 0.00 0.00 0.00 0.00 0.01 0.03 0.06 0.16 0.44 1.30 1.38 0.86 0.90 0.78 0.75 0.81 0.77 0.81 0.80 0.75 0.58 0.39 0.31 0.33 0.39 0.57 0.72 0.62 0.54 0.50 0.47
0.10 0.02 0.03 0.05 0.06 0.07 0.13 0.20 0.34 0.93 1.22 1.16 0.93 1.04 1.14 0.94 0.79 0.55 0.34 0.34 0.39 0.34 0.36 0.31 0.34 0.34 0.34 0.33 0.34 0.38 0.42 0.43
0.16 0.10 0.08 0.11 0.18 0.39 0.50 0.59 0.64 0.96 0.78 0.78 0.62 0.56 0.70 0.35 0.33 0.27 0.22 0.16 0.17 0.19 0.15 0.15 0.15 0.18 0.21 0.22 0.27 0.29 0.27 0.23
0.27 0.17 0.16 0.17 0.20 0.31 0.38 0.45 0.48 0.60 0.68 0.69 0.53 0.33 0.36 0.26 0.29 0.25 0.16 0.14 0.13 0.16 0.15 0.18 0.21 0.19 0.20 0.20 0.17 0.15 0.15 0.17
0.23 0.09 0.08 0.12 0.12 0.13 0.17 0.24 0.34 0.30 0.28 0.38 0.28 0.22 0.26 0.24 0.26 0.30 0.21 0.22 0.26 0.27 0.37 0.37 0.28 0.25 0.36 0.25 0.14 0.07 0.05 0.05
0.10 0.02 0.01 0.02 0.08 0.14 0.10 0.12 0.21 0.22 0.27 0.31 0.22 0.17 0.23 0.21 0.27 0.26 0.25 0.33 0.57 0.62 0.51 0.43 0.31 0.25 0.38 0.31 0.24 0.07 0.05 0.05
0.51 0.27 0.12 0.09 0.12 0.07 0.06 0.08 0.11 0.22 0.19 0.13 0.17 0.19 0.20 0.25 0.25 0.21 0.42 0.61 0.57 0.48 0.35 0.26 0.23 0.27 0.36 0.34 0.34 0.13 0.07 0.09

GFSFLT1_prec_precacc_096.txt.gz
Total_Precipitation_Accumulation
0.02 0.08 0.06 0.03 0.07 0.47 0.76 0.84 1.33 1.81 1.49 0.67 0.39 0.40 0.31 0.37 0.39 0.42 0.60 1.09 0.76 0.61 0.59 0.36 0.38 0.28 0.17 0.09 0.03 0.03 0.02 0.00
0.05 0.08 0.11 0.12 0.20 0.55 0.70 0.86 0.73 0.52 0.32 0.30 0.26 0.28 0.19 0.21 0.21 0.40 0.49 0.78 0.87 0.58 0.51 0.43 0.33 0.21 0.13 0.05 0.03 0.04 0.03 0.01
0.01 0.02 0.08 0.22 0.43 0.48 0.41 0.32 0.20 0.19 0.15 0.12 0.12 0.15 0.12 0.09 0.13 0.25 0.73 0.73 0.72 0.60 0.44 0.27 0.21 0.18 0.15 0.07 0.05 0.04 0.05 0.05
0.05 0.09 0.12 0.12 0.10 0.06 0.09 0.14 0.09 0.14 0.08 0.06 0.05 0.14 0.24 0.18 0.17 0.24 0.50 0.47 0.55 0.48 0.51 0.31 0.21 0.17 0.10 0.07 0.06 0.05 0.10 0.06
0.02 0.01 0.01 0.00 0.05 0.08 0.12 0.10 0.10 0.04 0.03 0.03 0.02 0.03 0.09 0.11 0.13 0.14 0.29 0.33 0.40 0.45 0.40 0.33 0.18 0.16 0.11 0.07 0.06 0.04 0.20 0.25
0.02 0.01 0.03 0.05 0.04 0.08 0.09 0.11 0.13 0.05 0.03 0.02 0.04 0.03 0.02 0.07 0.12 0.18 0.24 0.33 0.29 0.44 0.47 0.39 0.21 0.11 0.16 0.19 0.12 0.12 0.19 0.24
0.06 0.04 0.06 0.06 0.07 0.20 0.11 0.11 0.09 0.08 0.06 0.03 0.08 0.14 0.09 0.07 0.09 0.08 0.12 0.22 0.22 0.33 0.54 0.42 0.31 0.22 0.25 0.27 0.32 0.32 0.41 0.38
0.02 0.02 0.05 0.05 0.09 0.20 0.10 0.05 0.06 0.04 0.04 0.07 0.11 0.22 0.18 0.18 0.10 0.07 0.13 0.12 0.10 0.15 0.33 0.40 0.33 0.37 0.37 0.47 0.48 0.47 0.49 0.55
0.01 0.02 0.05 0.07 0.17 0.18 0.09 0.04 0.06 0.06 0.14 0.26 0.23 0.21 0.29 0.40 0.30 0.17 0.25 0.15 0.11 0.15 0.23 0.46 0.47 0.47 0.41 0.45 0.55 0.71 0.81 0.76
0.00 0.01 0.00 0.02 0.23 0.17 0.05 0.03 0.02 0.03 0.15 0.27 0.16 0.37 0.64 0.51 0.40 0.38 0.37 0.39 0.37 0.32 0.39 0.51 0.59 0.58 0.64 0.64 0.60 0.45 0.36 0.32
0.00 0.00 0.00 0.01 0.06 0.05 0.02 0.08 0.22 0.18 0.06 0.09 0.12 0.18 0.31 0.40 0.34 0.37 0.59 0.63 0.47 0.52 0.53 0.54 0.46 0.39 0.45 0.41 0.35 0.28 0.34 0.36
0.00 0.01 0.00 0.00 0.00 0.00 0.01 0.02 0.18 0.38 0.59 0.48 0.27 0.37 0.36 0.58 0.60 0.75 0.59 0.55 0.64 0.68 0.48 0.38 0.33 0.44 0.50 0.38 0.38 0.38 0.38 0.42
0.04 0.02 0.01 0.01 0.01 0.01 0.04 0.06 0.17 0.45 1.30 1.39 0.86 0.90 0.78 0.75 0.81 0.78 0.81 0.80 0.75 0.58 0.39 0.32 0.33 0.39 0.57 0.72 0.62 0.54 0.50 0.47
0.14 0.06 0.06 0.08 0.08 0.08 0.13 0.21 0.35 0.95 1.25 1.20 0.93 1.04 1.15 0.94 0.80 0.56 0.34 0.35 0.40 0.35 0.36 0.32 0.34 0.34 0.34 0.34 0.34 0.38 0.42 0.43
0.26 0.21 0.15 0.15 0.21 0.40 0.52 0.62 0.67 1.02 0.82 0.84 0.65 0.56 0.70 0.35 0.34 0.28 0.22 0.17 0.17 0.19 0.15 0.15 0.15 0.19 0.21 0.23 0.27 0.29 0.27 0.23
0.46 0.29 0.26 0.23 0.24 0.34 0.43 0.51 0.61 0.72 0.77 0.80 0.60 0.35 0.36 0.26 0.30 0.26 0.16 0.14 0.14 0.17 0.15 0.18 0.21 0.20 0.21 0.21 0.17 0.15 0.15 0.17
0.73 0.44 0.23 0.24 0.22 0.19 0.26 0.35 0.47 0.42 0.36 0.47 0.37 0.26 0.27 0.24 0.27 0.30 0.22 0.23 0.26 0.28 0.38 0.38 0.29 0.26 0.37 0.25 0.14 0.07 0.05 0.05
0.72 0.50 0.22 0.11 0.20 0.24 0.23 0.25 0.35 0.34 0.35 0.39 0.29 0.24 0.32 0.28 0.30 0.27 0.26 0.34 0.58 0.64 0.53 0.46 0.35 0.31 0.44 0.31 0.25 0.07 0.05 0.05
1.01 0.89 0.39 0.22 0.22 0.12 0.11 0.13 0.19 0.33 0.32 0.37 0.37 0.31 0.30 0.34 0.30 0.24 0.43 0.63 0.58 0.49 0.36 0.28 0.26 0.31 0.40 0.35 0.35 0.14 0.08 0.11

GFSFLT1_prec_precacc_102.txt.gz
Total_Precipitation_Accumulation
0.02 0.08 0.06 0.03 0.07 0.47 0.76 0.84 1.33 1.81 1.49 0.67 0.39 0.40 0.31 0.37 0.39 0.42 0.61 1.11 0.78 0.65 0.69 0.56 0.49 0.37 0.22 0.11 0.06 0.13 0.16 0.15
0.05 0.08 0.11 0.12 0.20 0.55 0.70 0.86 0.73 0.52 0.32 0.30 0.26 0.29 0.20 0.21 0.22 0.40 0.51 0.82 0.92 0.69 0.71 0.65 0.54 0.32 0.19 0.11 0.06 0.10 0.22 0.19
0.01 0.02 0.08 0.22 0.43 0.48 0.41 0.32 0.20 0.19 0.15 0.12 0.12 0.15 0.13 0.09 0.14 0.26 0.76 0.77 0.75 0.70 0.73 0.57 0.45 0.41 0.38 0.24 0.10 0.09 0.19 0.23
0.05 0.09 0.12 0.12 0.10 0.06 0.09 0.14 0.09 0.14 0.08 0.06 0.05 0.14 0.24 0.19 0.19 0.25 0.51 0.49 0.57 0.54 0.69 0.68 0.50 0.48 0.51 0.37 0.15 0.09 0.16 0.22
0.02 0.01 0.01 0.00 0.05 0.08 0.12 0.10 0.10 0.04 0.03 0.03 0.02 0.03 0.09 0.11 0.13 0.14 0.30 0.34 0.41 0.46 0.44 0.57 0.44 0.47 0.47 0.38 0.21 0.12 0.26 0.32
0.02 0.01 0.03 0.05 0.04 0.08 0.09 0.11 0.13 0.05 0.03 0.02 0.04 0.03 0.02 0.07 0.13 0.18 0.25 0.34 0.30 0.44 0.50 0.59 0.49 0.45 0.45 0.40 0.28 0.23 0.27 0.29
0.06 0.04 0.06 0.06 0.07 0.20 0.11 0.11 0.09 0.08 0.06 0.03 0.08 0.14 0.09 0.07 0.09 0.09 0.13 0.22 0.22 0.34 0.58 0.58 0.59 0.56 0.60 0.46 0.46 0.42 0.49 0.47
0.02 0.02 0.05 0.05 0.09 0.20 0.10 0.05 0.06 0.05 0.04 0.07 0.11 0.22 0.18 0.18 0.10 0.08 0.14 0.12 0.11 0.16 0.34 0.49 0.51 0.68 0.69 0.75 0.67 0.59 0.62 0.65
0.01 0.02 0.05 0.07 0.17 0.18 0.09 0.04 0.06 0.07 0.14 0.26 0.23 0.21 0.29 0.40 0.30 0.17 0.26 0.16 0.11 0.15 0.25 0.49 0.61 0.75 0.70 0.72 0.81 0.87 0.95 0.88
0.00 0.01 0.00 0.02 0.23 0.17 0.05 0.03 0.02 0.04 0.15 0.27 0.16 0.37 0.64 0.51 0.40 0.38 0.38 0.40 0.37 0.32 0.39 0.53 0.67 0.67 0.83 0.85 0.84 0.68 0.55 0.47
0.00 0.00 0.00 0.01 0.06 0.05 0.02 0.08 0.22 0.19 0.07 0.09 0.12 0.19 0.31 0.41 0.34 0.38 0.60 0.65 0.48 0.52 0.53 0.54 0.48 0.44 0.54 0.56 0.46 0.37 0.45 0.45
0.00 0.01 0.00 0.00 0.00 0.00 0.05 0.04 0.18 0.38 0.60 0.49 0.28 0.38 0.36 0.58 0.60 0.76 0.60 0.56 0.65 0.69 0.48 0.38 0.34 0.45 0.55 0.49 0.46 0.43 0.40 0.44
0.04 0.02 0.02 0.02 0.03 0.05 0.08 0.09 0.18 0.46 1.32 1.41 0.87 0.91 0.78 0.75 0.81 0.78 0.81 0.81 0.75 0.59 0.40 0.32 0.33 0.40 0.58 0.75 0.68 0.60 0.57 0.51
0.14 0.07 0.07 0.12 0.14 0.12 0.18 0.30 0.40 0.98 1.27 1.22 0.96 1.06 1.15 0.94 0.80 0.57 0.35 0.35 0.40 0.36 0.38 0.33 0.34 0.34 0.35 0.36 0.35 0.41 0.44 0.45
0.26 0.21 0.17 0.20 0.29 0.48 0.61 0.73 0.78 1.13 0.90 0.90 0.72 0.61 0.72 0.37 0.35 0.30 0.23 0.18 0.19 0.21 0.18 0.17 0.16 0.19 0.22 0.25 0.29 0.31 0.27 0.23
0.49 0.33 0.32 0.31 0.35 0.45 0.54 0.64 0.78 0.93 0.95 0.96 0.73 0.44 0.41 0.29 0.32 0.29 0.18 0.15 0.16 0.19 0.18 0.23 0.25 0.23 0.22 0.22 0.17 0.15 0.15 0.17
0.86 0.61 0.40 0.43 0.41 0.39 0.41 0.49 0.64 0.64 0.57 0.63 0.55 0.43 0.37 0.29 0.29 0.32 0.24 0.24 0.27 0.29 0.39 0.39 0.30 0.27 0.40 0.27 0.15 0.08 0.06 0.06
0.94 0.86 0.62 0.53 0.62 0.61 0.53 0.48 0.55 0.53 0.57 0.63 0.50 0.40 0.42 0.33 0.33 0.31 0.29 0.36 0.59 0.66 0.56 0.47 0.37 0.33 0.48 0.33 0.26 0.08 0.09 0.12
1.12 1.18 0.88 0.68 0.70 0.61 0.52 0.49 0.49 0.65 0.65 0.75 0.73 0.58 0.47 0.45 0.44 0.35 0.51 0.67 0.62 0.53 0.41 0.32 0.29 0.36 0.45 0.38 0.38 0.15 0.11 0.17